Wetterdaten: Freitag, 03.01.2020
Datum Zeit Temp. Aussen Temp. o. S. Temp +5cm Feuchte Auss Luftdruck Regen Sonnenschein Regendauer Solar Windben Empfang
03.01.2020 00:00 4,7 C 4,4 C 3,9 C 95 % 1022,1 hPa 0,0 l/m 0 min 0 min 0 W/m 12,9 km/h (3 Bft) 97,87 %
03.01.2020 00:02 4,7 C 4,4 C 3,9 C 95 % 1022,2 hPa 0,0 l/m 0 min 0 min 0 W/m 0,0 km/h (0 Bft) 97,22 %
03.01.2020 00:04 4,7 C 4,4 C 3,9 C 95 % 1022,1 hPa 0,0 l/m 0 min 0 min 0 W/m 0,0 km/h (0 Bft) 100,00 %
03.01.2020 00:08 4,8 C 4,4 C 3,9 C 95 % 1022,1 hPa 0,0 l/m 0 min 0 min 0 W/m 3,2 km/h (1 Bft) 75,00 %
03.01.2020 00:10 4,8 C 4,4 C 3,9 C 95 % 1022,1 hPa 0,0 l/m 0 min 0 min 0 W/m 12,9 km/h (3 Bft) 100,00 %
03.01.2020 00:12 4,9 C 4,4 C 3,9 C 95 % 1022,2 hPa 0,0 l/m 0 min 0 min 0 W/m 0,0 km/h (0 Bft) 100,00 %
03.01.2020 00:14 4,9 C 4,4 C 3,9 C 95 % 1022,1 hPa 0,0 l/m 0 min 0 min 0 W/m 0,0 km/h (0 Bft) 100,00 %
03.01.2020 00:16 4,9 C 4,4 C 3,9 C 95 % 1022,1 hPa 0,0 l/m 0 min 0 min 0 W/m 3,2 km/h (1 Bft) 100,00 %
03.01.2020 00:18 4,9 C 5,0 C 3,9 C 95 % 1022,1 hPa 0,0 l/m 0 min 0 min 0 W/m 22,5 km/h (4 Bft) 100,00 %
03.01.2020 00:20 5,0 C 5,0 C 3,9 C 95 % 1022,1 hPa 0,0 l/m 0 min 0 min 0 W/m 12,9 km/h (3 Bft) 100,00 %
03.01.2020 00:22 5,0 C 5,0 C 3,9 C 95 % 1022,0 hPa 0,0 l/m 0 min 0 min 0 W/m 6,4 km/h (2 Bft) 100,00 %
03.01.2020 00:24 5,1 C 5,0 C 3,9 C 95 % 1022,0 hPa 0,0 l/m 0 min 0 min 0 W/m 12,9 km/h (3 Bft) 100,00 %
03.01.2020 00:26 5,1 C 5,0 C 3,9 C 95 % 1021,9 hPa 0,0 l/m 0 min 0 min 0 W/m 3,2 km/h (1 Bft) 100,00 %
03.01.2020 00:28 5,1 C 5,0 C 3,9 C 95 % 1021,8 hPa 0,0 l/m 0 min 0 min 0 W/m 3,2 km/h (1 Bft) 100,00 %
03.01.2020 00:30 5,1 C 5,0 C 3,9 C 95 % 1021,9 hPa 0,0 l/m 0 min 0 min 0 W/m 3,2 km/h (1 Bft) 100,00 %
03.01.2020 00:32 5,1 C 5,0 C 4,4 C 94 % 1021,8 hPa 0,0 l/m 0 min 0 min 0 W/m 12,9 km/h (3 Bft) 100,00 %
03.01.2020 00:34 5,2 C 5,0 C 4,4 C 94 % 1021,8 hPa 0,0 l/m 0 min 0 min 0 W/m 3,2 km/h (1 Bft) 100,00 %
03.01.2020 00:36 5,2 C 5,0 C 4,4 C 95 % 1021,7 hPa 0,0 l/m 0 min 0 min 0 W/m 16,1 km/h (3 Bft) 100,00 %
03.01.2020 00:38 5,2 C 5,0 C 4,4 C 95 % 1021,7 hPa 0,0 l/m 0 min 0 min 0 W/m 0,0 km/h (0 Bft) 100,00 %
03.01.2020 00:40 5,2 C 5,0 C 4,4 C 95 % 1021,7 hPa 0,0 l/m 0 min 0 min 0 W/m 0,0 km/h (0 Bft) 100,00 %
03.01.2020 00:42 5,2 C 5,0 C 4,4 C 94 % 1021,7 hPa 0,0 l/m 0 min 0 min 0 W/m 12,9 km/h (3 Bft) 100,00 %
03.01.2020 00:44 5,2 C 5,0 C 4,4 C 94 % 1021,7 hPa 0,0 l/m 0 min 0 min 0 W/m 16,1 km/h (3 Bft) 100,00 %
03.01.2020 00:46 5,2 C 5,0 C 4,4 C 94 % 1021,7 hPa 0,0 l/m 0 min 0 min 0 W/m 12,9 km/h (3 Bft) 100,00 %
03.01.2020 00:48 5,3 C 5,0 C 4,4 C 94 % 1021,6 hPa 0,0 l/m 0 min 0 min 0 W/m 6,4 km/h (2 Bft) 100,00 %
03.01.2020 00:50 5,3 C 5,0 C 4,4 C 94 % 1021,6 hPa 0,0 l/m 0 min 0 min 0 W/m 6,4 km/h (2 Bft) 100,00 %
03.01.2020 00:52 5,3 C 5,0 C 4,4 C 94 % 1021,6 hPa 0,0 l/m 0 min 0 min 0 W/m 6,4 km/h (2 Bft) 100,00 %
03.01.2020 00:54 5,3 C 5,0 C 4,4 C 94 % 1021,6 hPa 0,0 l/m 0 min 0 min 0 W/m 6,4 km/h (2 Bft) 97,87 %
03.01.2020 00:56 5,3 C 5,0 C 4,4 C 94 % 1021,5 hPa 0,0 l/m 0 min 0 min 0 W/m 12,9 km/h (3 Bft) 100,00 %
03.01.2020 00:58 5,3 C 5,0 C 4,4 C 94 % 1021,4 hPa 0,0 l/m 0 min 0 min 0 W/m 16,1 km/h (3 Bft) 100,00 %
03.01.2020 01:00 5,3 C 5,0 C 4,4 C 94 % 1021,4 hPa 0,0 l/m 0 min 0 min 0 W/m 19,3 km/h (3 Bft) 100,00 %
03.01.2020 01:02 5,3 C 5,0 C 4,4 C 94 % 1021,3 hPa 0,0 l/m 0 min 0 min 0 W/m 3,2 km/h (1 Bft) 97,87 %
03.01.2020 01:04 5,3 C 5,0 C 4,4 C 94 % 1021,3 hPa 0,0 l/m 0 min 0 min 0 W/m 3,2 km/h (1 Bft) 100,00 %
03.01.2020 01:06 5,4 C 5,0 C 4,4 C 94 % 1021,2 hPa 0,0 l/m 0 min 0 min 0 W/m 12,9 km/h (3 Bft) 97,87 %
03.01.2020 01:08 5,4 C 5,0 C 4,4 C 94 % 1021,1 hPa 0,0 l/m 0 min 0 min 0 W/m 3,2 km/h (1 Bft) 97,87 %
03.01.2020 01:10 5,4 C 5,0 C 4,4 C 94 % 1021,1 hPa 0,0 l/m 0 min 0 min 0 W/m 0,0 km/h (0 Bft) 97,87 %
03.01.2020 01:12 5,4 C 5,0 C 4,4 C 94 % 1021,0 hPa 0,0 l/m 0 min 0 min 0 W/m 12,9 km/h (3 Bft) 97,83 %
03.01.2020 01:14 5,4 C 5,0 C 4,4 C 94 % 1021,1 hPa 0,0 l/m 0 min 0 min 0 W/m 3,2 km/h (1 Bft) 97,87 %
03.01.2020 01:16 5,4 C 5,0 C 4,4 C 94 % 1021,0 hPa 0,0 l/m 0 min 0 min 0 W/m 12,9 km/h (3 Bft) 95,74 %
03.01.2020 01:18 5,4 C 5,0 C 4,4 C 94 % 1021,0 hPa 0,0 l/m 0 min 0 min 0 W/m 12,9 km/h (3 Bft) 97,87 %
03.01.2020 01:20 5,4 C 5,0 C 4,4 C 94 % 1021,0 hPa 0,0 l/m 0 min 0 min 0 W/m 16,1 km/h (3 Bft) 97,87 %
03.01.2020 01:22 5,4 C 5,0 C 4,4 C 93 % 1021,0 hPa 0,0 l/m 0 min 0 min 0 W/m 16,1 km/h (3 Bft) 97,83 %
03.01.2020 01:24 5,4 C 5,0 C 4,4 C 93 % 1020,9 hPa 0,0 l/m 0 min 0 min 0 W/m 16,1 km/h (3 Bft) 95,74 %
03.01.2020 01:26 5,4 C 5,0 C 4,4 C 93 % 1020,9 hPa 0,0 l/m 0 min 0 min 0 W/m 19,3 km/h (3 Bft) 97,87 %
03.01.2020 01:28 5,4 C 5,0 C 4,4 C 93 % 1020,9 hPa 0,0 l/m 0 min 0 min 0 W/m 12,9 km/h (3 Bft) 97,87 %
03.01.2020 01:30 5,4 C 5,0 C 4,4 C 93 % 1020,9 hPa 0,0 l/m 0 min 0 min 0 W/m 12,9 km/h (3 Bft) 97,87 %
03.01.2020 01:32 5,5 C 5,0 C 4,4 C 93 % 1020,8 hPa 0,0 l/m 0 min 0 min 0 W/m 12,9 km/h (3 Bft) 97,87 %
03.01.2020 01:34 5,5 C 5,0 C 4,4 C 93 % 1020,8 hPa 0,0 l/m 0 min 0 min 0 W/m 6,4 km/h (2 Bft) 97,83 %
03.01.2020 01:36 5,5 C 5,0 C 4,4 C 93 % 1020,8 hPa 0,0 l/m 0 min 0 min 0 W/m 22,5 km/h (4 Bft) 97,87 %
03.01.2020 01:38 5,6 C 5,0 C 4,4 C 93 % 1020,8 hPa 0,0 l/m 0 min 0 min 0 W/m 12,9 km/h (3 Bft) 97,87 %
03.01.2020 01:40 5,6 C 5,0 C 4,4 C 93 % 1020,8 hPa 0,0 l/m 0 min 0 min 0 W/m 16,1 km/h (3 Bft) 95,74 %
03.01.2020 01:42 5,6 C 5,0 C 4,4 C 93 % 1020,8 hPa 0,0 l/m 0 min 0 min 0 W/m 6,4 km/h (2 Bft) 95,74 %
03.01.2020 01:44 5,6 C 5,6 C 4,4 C 93 % 1020,8 hPa 0,0 l/m 0 min 0 min 0 W/m 0,0 km/h (0 Bft) 91,49 %
03.01.2020 01:46 5,6 C 5,6 C 4,4 C 93 % 1020,8 hPa 0,0 l/m 0 min 0 min 0 W/m 19,3 km/h (3 Bft) 91,30 %
03.01.2020 01:48 5,6 C 5,6 C 4,4 C 94 % 1020,7 hPa 0,0 l/m 0 min 0 min 0 W/m 22,5 km/h (4 Bft) 93,62 %
03.01.2020 01:50 5,7 C 5,6 C 4,4 C 94 % 1020,8 hPa 0,0 l/m 0 min 0 min 0 W/m 3,2 km/h (1 Bft) 95,74 %
03.01.2020 01:52 5,7 C 5,6 C 4,4 C 94 % 1020,7 hPa 0,0 l/m 0 min 0 min 0 W/m 16,1 km/h (3 Bft) 93,62 %
03.01.2020 01:54 5,7 C 5,6 C 5,0 C 94 % 1020,6 hPa 0,0 l/m 0 min 0 min 0 W/m 12,9 km/h (3 Bft) 93,62 %
03.01.2020 01:56 5,8 C 5,6 C 5,0 C 94 % 1020,6 hPa 0,0 l/m 0 min 0 min 0 W/m 12,9 km/h (3 Bft) 93,62 %
03.01.2020 01:58 5,8 C 5,6 C 5,0 C 94 % 1020,6 hPa 0,0 l/m 0 min 0 min 0 W/m 6,4 km/h (2 Bft) 95,65 %
03.01.2020 02:00 5,8 C 5,6 C 5,0 C 94 % 1020,5 hPa 0,0 l/m 0 min 0 min 0 W/m 6,4 km/h (2 Bft) 95,74 %
03.01.2020 02:02 5,8 C 5,6 C 5,0 C 94 % 1020,5 hPa 0,0 l/m 0 min 0 min 0 W/m 12,9 km/h (3 Bft) 91,49 %
03.01.2020 02:04 5,8 C 5,6 C 5,0 C 94 % 1020,5 hPa 0,0 l/m 0 min 0 min 0 W/m 16,1 km/h (3 Bft) 93,62 %
03.01.2020 02:06 5,8 C 5,6 C 5,0 C 94 % 1020,5 hPa 0,0 l/m 0 min 0 min 0 W/m 12,9 km/h (3 Bft) 95,74 %
03.01.2020 02:08 5,9 C 5,6 C 5,0 C 93 % 1020,5 hPa 0,0 l/m 0 min 0 min 0 W/m 3,2 km/h (1 Bft) 95,74 %
03.01.2020 02:10 5,9 C 5,6 C 5,0 C 93 % 1020,5 hPa 0,0 l/m 0 min 0 min 0 W/m 6,4 km/h (2 Bft) 95,65 %
03.01.2020 02:12 5,9 C 5,6 C 5,0 C 94 % 1020,5 hPa 0,0 l/m 0 min 0 min 0 W/m 12,9 km/h (3 Bft) 93,62 %
03.01.2020 02:14 5,9 C 5,6 C 5,0 C 94 % 1020,6 hPa 0,0 l/m 0 min 0 min 0 W/m 12,9 km/h (3 Bft) 95,74 %
03.01.2020 02:16 6,0 C 5,6 C 5,0 C 94 % 1020,5 hPa 0,0 l/m 0 min 0 min 0 W/m 0,0 km/h (0 Bft) 95,74 %
03.01.2020 02:18 6,0 C 5,6 C 5,0 C 94 % 1020,5 hPa 0,0 l/m 0 min 0 min 0 W/m 6,4 km/h (2 Bft) 95,74 %
03.01.2020 02:20 6,0 C 5,6 C 5,0 C 94 % 1020,5 hPa 0,0 l/m 0 min 0 min 0 W/m 12,9 km/h (3 Bft) 95,74 %
03.01.2020 02:22 6,1 C 5,6 C 5,0 C 93 % 1020,5 hPa 0,0 l/m 0 min 0 min 0 W/m 12,9 km/h (3 Bft) 91,30 %
03.01.2020 02:24 6,1 C 5,6 C 5,0 C 93 % 1020,5 hPa 0,0 l/m 0 min 0 min 0 W/m 19,3 km/h (3 Bft) 95,74 %
03.01.2020 02:26 6,1 C 5,6 C 5,0 C 93 % 1020,4 hPa 0,0 l/m 0 min 0 min 0 W/m 16,1 km/h (3 Bft) 97,87 %
03.01.2020 02:28 6,1 C 5,6 C 5,0 C 93 % 1020,4 hPa 0,0 l/m 0 min 0 min 0 W/m 3,2 km/h (1 Bft) 97,87 %
03.01.2020 02:30 6,1 C 5,6 C 5,0 C 93 % 1020,4 hPa 0,0 l/m 0 min 0 min 0 W/m 0,0 km/h (0 Bft) 97,87 %
03.01.2020 02:32 6,1 C 5,6 C 5,0 C 93 % 1020,4 hPa 0,0 l/m 0 min 0 min 0 W/m 3,2 km/h (1 Bft) 93,62 %
03.01.2020 02:34 6,1 C 5,6 C 5,0 C 93 % 1020,3 hPa 0,0 l/m 0 min 0 min 0 W/m 12,9 km/h (3 Bft) 97,83 %
03.01.2020 02:36 6,1 C 5,6 C 5,0 C 93 % 1020,3 hPa 0,0 l/m 0 min 0 min 0 W/m 3,2 km/h (1 Bft) 97,87 %
03.01.2020 02:38 6,1 C 5,6 C 5,0 C 93 % 1020,3 hPa 0,0 l/m 0 min 0 min 0 W/m 16,1 km/h (3 Bft) 97,87 %
03.01.2020 02:40 6,2 C 5,6 C 5,0 C 93 % 1020,2 hPa 0,0 l/m 0 min 0 min 0 W/m 16,1 km/h (3 Bft) 97,87 %
03.01.2020 02:42 6,2 C 5,6 C 5,0 C 93 % 1020,3 hPa 0,0 l/m 0 min 0 min 0 W/m 19,3 km/h (3 Bft) 97,87 %
03.01.2020 02:44 6,2 C 5,6 C 5,0 C 93 % 1020,2 hPa 0,0 l/m 0 min 0 min 0 W/m 9,7 km/h (2 Bft) 95,65 %
03.01.2020 02:46 6,2 C 5,6 C 5,0 C 93 % 1020,2 hPa 0,0 l/m 0 min 0 min 0 W/m 12,9 km/h (3 Bft) 97,87 %
03.01.2020 02:48 6,2 C 5,6 C 5,0 C 93 % 1020,2 hPa 0,0 l/m 0 min 0 min 0 W/m 0,0 km/h (0 Bft) 97,87 %
03.01.2020 02:50 6,2 C 5,6 C 5,0 C 93 % 1020,2 hPa 0,0 l/m 0 min 0 min 0 W/m 0,0 km/h (0 Bft) 97,87 %
03.01.2020 02:52 6,2 C 5,6 C 5,0 C 93 % 1020,2 hPa 0,0 l/m 0 min 0 min 0 W/m 0,0 km/h (0 Bft) 97,87 %
03.01.2020 02:54 6,2 C 5,6 C 5,0 C 93 % 1020,2 hPa 0,0 l/m 0 min 0 min 0 W/m 0,0 km/h (0 Bft) 97,87 %
03.01.2020 02:56 6,2 C 5,6 C 5,0 C 93 % 1020,2 hPa 0,0 l/m 0 min 0 min 0 W/m 0,0 km/h (0 Bft) 97,83 %
03.01.2020 02:58 6,2 C 5,6 C 5,0 C 93 % 1020,1 hPa 0,0 l/m 0 min 0 min 0 W/m 12,9 km/h (3 Bft) 100,00 %
03.01.2020 03:00 6,3 C 5,6 C 5,0 C 93 % 1020,1 hPa 0,0 l/m 0 min 0 min 0 W/m 6,4 km/h (2 Bft) 100,00 %
03.01.2020 03:02 6,3 C 5,6 C 5,0 C 93 % 1020,1 hPa 0,0 l/m 0 min 0 min 0 W/m 6,4 km/h (2 Bft) 100,00 %
03.01.2020 03:04 6,3 C 5,6 C 5,0 C 93 % 1020,1 hPa 0,0 l/m 0 min 0 min 0 W/m 6,4 km/h (2 Bft) 100,00 %
03.01.2020 03:06 6,3 C 5,6 C 5,0 C 93 % 1020,0 hPa 0,0 l/m 0 min 0 min 0 W/m 16,1 km/h (3 Bft) 100,00 %
03.01.2020 03:08 6,3 C 6,1 C 5,0 C 93 % 1020,0 hPa 0,0 l/m 0 min 0 min 0 W/m 12,9 km/h (3 Bft) 100,00 %
03.01.2020 03:10 6,3 C 6,1 C 5,0 C 93 % 1020,0 hPa 0,0 l/m 0 min 0 min 0 W/m 9,7 km/h (2 Bft) 100,00 %
03.01.2020 03:12 6,3 C 6,1 C 5,0 C 93 % 1020,0 hPa 0,0 l/m 0 min 0 min 0 W/m 16,1 km/h (3 Bft) 100,00 %
03.01.2020 03:14 6,3 C 6,1 C 5,0 C 93 % 1020,0 hPa 0,0 l/m 0 min 0 min 0 W/m 12,9 km/h (3 Bft) 97,87 %
03.01.2020 03:16 6,3 C 6,1 C 5,0 C 93 % 1020,0 hPa 0,0 l/m 0 min 0 min 0 W/m 0,0 km/h (0 Bft) 100,00 %
03.01.2020 03:18 6,4 C 6,1 C 5,0 C 93 % 1019,9 hPa 0,0 l/m 0 min 0 min 0 W/m 0,0 km/h (0 Bft) 100,00 %
03.01.2020 03:20 6,4 C 6,1 C 5,0 C 93 % 1019,9 hPa 0,0 l/m 0 min 0 min 0 W/m 0,0 km/h (0 Bft) 100,00 %
03.01.2020 03:22 6,4 C 6,1 C 5,0 C 93 % 1019,8 hPa 0,0 l/m 0 min 0 min 0 W/m 3,2 km/h (1 Bft) 100,00 %
03.01.2020 03:24 6,4 C 6,1 C 5,0 C 93 % 1019,8 hPa 0,0 l/m 0 min 0 min 0 W/m 0,0 km/h (0 Bft) 100,00 %
03.01.2020 03:26 6,4 C 6,1 C 5,0 C 93 % 1019,7 hPa 0,0 l/m 0 min 0 min 0 W/m 0,0 km/h (0 Bft) 100,00 %
03.01.2020 03:28 6,4 C 6,1 C 5,6 C 93 % 1019,7 hPa 0,0 l/m 0 min 0 min 0 W/m 0,0 km/h (0 Bft) 97,87 %
03.01.2020 03:30 6,5 C 6,1 C 5,6 C 93 % 1019,7 hPa 0,0 l/m 0 min 0 min 0 W/m 0,0 km/h (0 Bft) 100,00 %
03.01.2020 03:32 6,5 C 6,1 C 5,6 C 93 % 1019,7 hPa 0,0 l/m 0 min 0 min 0 W/m 0,0 km/h (0 Bft) 100,00 %
03.01.2020 03:34 6,5 C 6,1 C 5,6 C 93 % 1019,7 hPa 0,0 l/m 0 min 0 min 0 W/m 0,0 km/h (0 Bft) 100,00 %
03.01.2020 03:36 6,5 C 6,1 C 5,6 C 93 % 1019,7 hPa 0,0 l/m 0 min 0 min 0 W/m 0,0 km/h (0 Bft) 100,00 %
03.01.2020 03:38 6,5 C 6,1 C 5,6 C 94 % 1019,7 hPa 0,0 l/m 0 min 0 min 0 W/m 0,0 km/h (0 Bft) 100,00 %
03.01.2020 03:40 6,6 C 6,1 C 5,6 C 94 % 1019,7 hPa 0,0 l/m 0 min 0 min 0 W/m 0,0 km/h (0 Bft) 100,00 %
03.01.2020 03:42 6,6 C 6,1 C 5,6 C 93 % 1019,7 hPa 0,0 l/m 0 min 0 min 0 W/m 0,0 km/h (0 Bft) 97,83 %
03.01.2020 03:44 6,6 C 6,7 C 5,6 C 94 % 1019,7 hPa 0,0 l/m 0 min 0 min 0 W/m 0,0 km/h (0 Bft) 97,87 %
03.01.2020 03:46 6,6 C 6,7 C 5,6 C 94 % 1019,7 hPa 0,0 l/m 0 min 0 min 0 W/m 0,0 km/h (0 Bft) 97,87 %
03.01.2020 03:48 6,7 C 6,7 C 6,1 C 94 % 1019,7 hPa 0,0 l/m 0 min 0 min 0 W/m 0,0 km/h (0 Bft) 100,00 %
03.01.2020 03:50 6,7 C 6,7 C 6,1 C 94 % 1019,7 hPa 0,0 l/m 0 min 0 min 0 W/m 0,0 km/h (0 Bft) 100,00 %
03.01.2020 03:52 6,8 C 6,7 C 6,1 C 94 % 1019,7 hPa 0,0 l/m 0 min 0 min 0 W/m 0,0 km/h (0 Bft) 100,00 %
03.01.2020 03:54 6,8 C 6,7 C 6,1 C 94 % 1019,8 hPa 0,0 l/m 0 min 0 min 0 W/m 0,0 km/h (0 Bft) 100,00 %
03.01.2020 03:56 6,9 C 7,2 C 6,1 C 94 % 1019,7 hPa 0,0 l/m 0 min 0 min 0 W/m 0,0 km/h (0 Bft) 97,87 %
03.01.2020 03:58 6,9 C 7,2 C 6,1 C 94 % 1019,7 hPa 0,0 l/m 0 min 0 min 0 W/m 16,1 km/h (3 Bft) 100,00 %
03.01.2020 04:00 7,1 C 7,2 C 6,7 C 94 % 1019,7 hPa 0,0 l/m 0 min 0 min 0 W/m 12,9 km/h (3 Bft) 100,00 %
03.01.2020 04:02 7,1 C 7,2 C 6,7 C 94 % 1019,6 hPa 0,0 l/m 0 min 0 min 0 W/m 6,4 km/h (2 Bft) 100,00 %
03.01.2020 04:04 7,2 C 7,2 C 6,7 C 94 % 1019,6 hPa 0,0 l/m 0 min 0 min 0 W/m 12,9 km/h (3 Bft) 100,00 %
03.01.2020 04:06 7,3 C 7,2 C 6,7 C 94 % 1019,6 hPa 0,0 l/m 0 min 0 min 0 W/m 12,9 km/h (3 Bft) 100,00 %
03.01.2020 04:08 7,3 C 7,2 C 6,7 C 94 % 1019,6 hPa 0,0 l/m 0 min 0 min 0 W/m 3,2 km/h (1 Bft) 97,87 %
03.01.2020 04:10 7,4 C 7,2 C 6,7 C 94 % 1019,5 hPa 0,0 l/m 0 min 0 min 0 W/m 0,0 km/h (0 Bft) 100,00 %
03.01.2020 04:12 7,4 C 7,2 C 6,7 C 94 % 1019,6 hPa 0,0 l/m 0 min 0 min 0 W/m 0,0 km/h (0 Bft) 97,87 %
03.01.2020 04:14 7,5 C 7,2 C 6,7 C 94 % 1019,5 hPa 0,0 l/m 0 min 0 min 0 W/m 0,0 km/h (0 Bft) 95,74 %
03.01.2020 04:16 7,6 C 7,2 C 6,7 C 94 % 1019,5 hPa 0,0 l/m 0 min 0 min 0 W/m 19,3 km/h (3 Bft) 97,83 %
03.01.2020 04:18 7,6 C 7,8 C 6,7 C 94 % 1019,5 hPa 0,0 l/m 0 min 0 min 0 W/m 22,5 km/h (4 Bft) 97,87 %
03.01.2020 04:20 7,7 C 7,8 C 6,7 C 94 % 1019,4 hPa 0,0 l/m 0 min 0 min 0 W/m 22,5 km/h (4 Bft) 97,87 %
03.01.2020 04:22 7,7 C 7,8 C 6,7 C 94 % 1019,5 hPa 0,0 l/m 0 min 0 min 0 W/m 6,4 km/h (2 Bft) 93,62 %
03.01.2020 04:24 7,8 C 7,8 C 6,7 C 94 % 1019,4 hPa 0,0 l/m 0 min 0 min 0 W/m 0,0 km/h (0 Bft) 95,74 %
03.01.2020 04:26 7,8 C 7,8 C 6,7 C 94 % 1019,4 hPa 0,0 l/m 0 min 0 min 0 W/m 3,2 km/h (1 Bft) 93,62 %
03.01.2020 04:28 7,8 C 7,8 C 6,7 C 94 % 1019,4 hPa 0,0 l/m 0 min 0 min 0 W/m 12,9 km/h (3 Bft) 95,65 %
03.01.2020 04:30 7,9 C 7,8 C 6,7 C 94 % 1019,3 hPa 0,0 l/m 0 min 0 min 0 W/m 16,1 km/h (3 Bft) 93,62 %
03.01.2020 04:32 7,9 C 7,8 C 6,7 C 94 % 1019,2 hPa 0,0 l/m 0 min 0 min 0 W/m 6,4 km/h (2 Bft) 95,74 %
03.01.2020 04:34 7,9 C 7,8 C 6,7 C 94 % 1019,2 hPa 0,0 l/m 0 min 0 min 0 W/m 12,9 km/h (3 Bft) 95,74 %
03.01.2020 04:36 7,9 C 7,8 C 6,7 C 94 % 1019,2 hPa 0,0 l/m 0 min 0 min 0 W/m 6,4 km/h (2 Bft) 95,74 %
03.01.2020 04:38 8,0 C 7,8 C 6,7 C 94 % 1019,2 hPa 0,0 l/m 0 min 0 min 0 W/m 16,1 km/h (3 Bft) 95,74 %
03.01.2020 04:40 8,0 C 7,8 C 6,7 C 94 % 1019,2 hPa 0,0 l/m 0 min 0 min 0 W/m 16,1 km/h (3 Bft) 93,48 %
03.01.2020 04:42 8,0 C 7,8 C 6,7 C 94 % 1019,2 hPa 0,0 l/m 0 min 0 min 0 W/m 16,1 km/h (3 Bft) 95,74 %
03.01.2020 04:44 8,1 C 7,8 C 6,7 C 93 % 1019,2 hPa 0,0 l/m 0 min 0 min 0 W/m 6,4 km/h (2 Bft) 93,62 %
03.01.2020 04:46 8,1 C 7,8 C 6,7 C 93 % 1019,2 hPa 0,0 l/m 0 min 0 min 0 W/m 3,2 km/h (1 Bft) 95,74 %
03.01.2020 04:48 8,1 C 7,8 C 6,7 C 93 % 1019,2 hPa 0,0 l/m 0 min 0 min 0 W/m 16,1 km/h (3 Bft) 93,62 %
03.01.2020 04:50 8,1 C 7,8 C 6,7 C 93 % 1019,1 hPa 0,0 l/m 0 min 0 min 0 W/m 12,9 km/h (3 Bft) 93,62 %
03.01.2020 04:52 8,1 C 7,8 C 6,7 C 93 % 1019,1 hPa 0,0 l/m 0 min 0 min 0 W/m 16,1 km/h (3 Bft) 97,83 %
03.01.2020 04:54 8,1 C 7,8 C 6,7 C 93 % 1019,1 hPa 0,0 l/m 0 min 0 min 0 W/m 16,1 km/h (3 Bft) 97,87 %
03.01.2020 04:56 8,1 C 7,8 C 6,7 C 93 % 1019,1 hPa 0,0 l/m 0 min 0 min 0 W/m 6,4 km/h (2 Bft) 95,74 %
03.01.2020 04:58 8,2 C 7,8 C 6,7 C 93 % 1019,0 hPa 0,0 l/m 0 min 0 min 0 W/m 16,1 km/h (3 Bft) 95,74 %
03.01.2020 05:00 8,2 C 7,8 C 6,7 C 93 % 1019,0 hPa 0,0 l/m 0 min 0 min 0 W/m 16,1 km/h (3 Bft) 95,74 %
03.01.2020 05:02 8,2 C 7,8 C 6,7 C 93 % 1019,1 hPa 0,0 l/m 0 min 0 min 0 W/m 22,5 km/h (4 Bft) 97,87 %
03.01.2020 05:04 8,2 C 7,8 C 6,7 C 93 % 1019,0 hPa 0,0 l/m 0 min 0 min 0 W/m 9,7 km/h (2 Bft) 95,65 %
03.01.2020 05:06 8,2 C 7,8 C 7,2 C 93 % 1019,0 hPa 0,0 l/m 0 min 0 min 0 W/m 16,1 km/h (3 Bft) 93,62 %
03.01.2020 05:08 8,2 C 7,8 C 6,7 C 93 % 1018,9 hPa 0,0 l/m 0 min 0 min 0 W/m 12,9 km/h (3 Bft) 95,74 %
03.01.2020 05:10 8,2 C 7,8 C 6,7 C 93 % 1018,9 hPa 0,0 l/m 0 min 0 min 0 W/m 19,3 km/h (3 Bft) 95,74 %
03.01.2020 05:12 8,3 C 7,8 C 6,7 C 93 % 1019,0 hPa 0,0 l/m 0 min 0 min 0 W/m 12,9 km/h (3 Bft) 93,62 %
03.01.2020 05:14 8,2 C 7,8 C 6,7 C 93 % 1018,9 hPa 0,0 l/m 0 min 0 min 0 W/m 12,9 km/h (3 Bft) 95,74 %
03.01.2020 05:16 8,2 C 7,8 C 6,7 C 93 % 1018,9 hPa 0,0 l/m 0 min 0 min 0 W/m 12,9 km/h (3 Bft) 93,48 %
03.01.2020 05:18 8,3 C 7,8 C 7,2 C 93 % 1018,9 hPa 0,0 l/m 0 min 0 min 0 W/m 3,2 km/h (1 Bft) 95,74 %
03.01.2020 05:20 8,2 C 7,8 C 7,2 C 93 % 1018,9 hPa 0,0 l/m 0 min 0 min 0 W/m 12,9 km/h (3 Bft) 97,87 %
03.01.2020 05:22 8,3 C 7,8 C 7,2 C 93 % 1018,9 hPa 0,0 l/m 0 min 0 min 0 W/m 0,0 km/h (0 Bft) 93,62 %
03.01.2020 05:24 8,3 C 7,8 C 7,2 C 93 % 1018,9 hPa 0,0 l/m 0 min 0 min 0 W/m 0,0 km/h (0 Bft) 97,87 %
03.01.2020 05:26 8,3 C 7,8 C 7,2 C 93 % 1018,9 hPa 0,0 l/m 0 min 0 min 0 W/m 9,7 km/h (2 Bft) 95,65 %
03.01.2020 05:28 8,3 C 7,8 C 7,2 C 93 % 1018,9 hPa 0,0 l/m 0 min 0 min 0 W/m 6,4 km/h (2 Bft) 97,87 %
03.01.2020 05:30 8,3 C 7,8 C 7,2 C 93 % 1018,8 hPa 0,0 l/m 0 min 0 min 0 W/m 19,3 km/h (3 Bft) 97,87 %
03.01.2020 05:32 8,3 C 7,8 C 7,2 C 93 % 1018,8 hPa 0,0 l/m 0 min 0 min 0 W/m 16,1 km/h (3 Bft) 97,87 %
03.01.2020 05:34 8,3 C 7,8 C 7,2 C 93 % 1018,8 hPa 0,0 l/m 0 min 0 min 0 W/m 19,3 km/h (3 Bft) 97,87 %
03.01.2020 05:36 8,3 C 7,8 C 7,2 C 92 % 1018,7 hPa 0,0 l/m 0 min 0 min 0 W/m 19,3 km/h (3 Bft) 97,87 %
03.01.2020 05:38 8,3 C 7,8 C 7,2 C 92 % 1018,7 hPa 0,0 l/m 0 min 0 min 0 W/m 19,3 km/h (3 Bft) 97,83 %
03.01.2020 05:40 8,3 C 7,8 C 7,2 C 93 % 1018,7 hPa 0,0 l/m 0 min 0 min 0 W/m 19,3 km/h (3 Bft) 97,87 %
03.01.2020 05:42 8,3 C 7,8 C 7,2 C 93 % 1018,7 hPa 0,0 l/m 0 min 0 min 0 W/m 22,5 km/h (4 Bft) 97,87 %
03.01.2020 05:44 8,3 C 7,8 C 7,2 C 92 % 1018,6 hPa 0,0 l/m 0 min 0 min 0 W/m 22,5 km/h (4 Bft) 98,00 %
03.01.2020 05:46 8,3 C 7,8 C 7,2 C 92 % 1018,6 hPa 0,0 l/m 0 min 0 min 0 W/m 12,9 km/h (3 Bft) 95,74 %
03.01.2020 05:48 8,4 C 7,8 C 7,2 C 92 % 1018,6 hPa 0,0 l/m 0 min 0 min 0 W/m 19,3 km/h (3 Bft) 97,83 %
03.01.2020 05:50 8,4 C 7,8 C 7,2 C 92 % 1018,6 hPa 0,0 l/m 0 min 0 min 0 W/m 6,4 km/h (2 Bft) 97,87 %
03.01.2020 05:52 8,4 C 7,8 C 7,2 C 92 % 1018,5 hPa 0,0 l/m 0 min 0 min 0 W/m 19,3 km/h (3 Bft) 97,87 %
03.01.2020 05:54 8,4 C 7,8 C 7,2 C 92 % 1018,5 hPa 0,0 l/m 0 min 0 min 0 W/m 12,9 km/h (3 Bft) 97,87 %
03.01.2020 05:56 8,4 C 7,8 C 7,2 C 92 % 1018,4 hPa 0,0 l/m 0 min 0 min 0 W/m 22,5 km/h (4 Bft) 97,87 %
03.01.2020 05:58 8,5 C 7,8 C 7,2 C 92 % 1018,3 hPa 0,0 l/m 0 min 0 min 0 W/m 19,3 km/h (3 Bft) 97,87 %
03.01.2020 06:00 8,5 C 8,3 C 7,2 C 92 % 1018,4 hPa 0,0 l/m 0 min 0 min 0 W/m 19,3 km/h (3 Bft) 97,83 %
03.01.2020 06:02 8,5 C 7,8 C 7,2 C 92 % 1018,4 hPa 0,0 l/m 0 min 0 min 0 W/m 12,9 km/h (3 Bft) 97,87 %
03.01.2020 06:04 8,5 C 7,8 C 7,2 C 92 % 1018,3 hPa 0,0 l/m 0 min 0 min 0 W/m 19,3 km/h (3 Bft) 97,87 %
03.01.2020 06:06 8,6 C 7,8 C 7,2 C 92 % 1018,3 hPa 0,0 l/m 0 min 0 min 0 W/m 9,7 km/h (2 Bft) 97,87 %
03.01.2020 06:08 8,6 C 7,8 C 7,2 C 91 % 1018,3 hPa 0,0 l/m 0 min 0 min 0 W/m 16,1 km/h (3 Bft) 100,00 %
03.01.2020 06:10 8,6 C 7,8 C 7,2 C 91 % 1018,3 hPa 0,0 l/m 0 min 0 min 0 W/m 19,3 km/h (3 Bft) 97,87 %
03.01.2020 06:12 8,6 C 7,8 C 7,2 C 91 % 1018,4 hPa 0,0 l/m 0 min 0 min 0 W/m 16,1 km/h (3 Bft) 100,00 %
03.01.2020 06:14 8,6 C 8,3 C 7,2 C 91 % 1018,3 hPa 0,0 l/m 0 min 0 min 0 W/m 19,3 km/h (3 Bft) 97,87 %
03.01.2020 06:16 8,6 C 8,3 C 7,2 C 91 % 1018,3 hPa 0,0 l/m 0 min 0 min 0 W/m 22,5 km/h (4 Bft) 100,00 %
03.01.2020 06:18 8,6 C 8,3 C 7,2 C 91 % 1018,2 hPa 0,0 l/m 0 min 0 min 0 W/m 12,9 km/h (3 Bft) 100,00 %
03.01.2020 06:20 8,6 C 8,3 C 7,2 C 91 % 1018,2 hPa 0,0 l/m 0 min 0 min 0 W/m 25,7 km/h (4 Bft) 100,00 %
03.01.2020 06:22 8,6 C 8,3 C 7,2 C 91 % 1018,2 hPa 0,0 l/m 0 min 0 min 0 W/m 35,4 km/h (5 Bft) 100,00 %
03.01.2020 06:24 8,7 C 8,3 C 7,2 C 91 % 1018,2 hPa 0,0 l/m 0 min 0 min 0 W/m 16,1 km/h (3 Bft) 100,00 %
03.01.2020 06:26 8,7 C 8,3 C 7,2 C 91 % 1018,1 hPa 0,0 l/m 0 min 0 min 0 W/m 16,1 km/h (3 Bft) 100,00 %
03.01.2020 06:28 8,7 C 8,3 C 7,8 C 91 % 1017,9 hPa 0,0 l/m 0 min 0 min 0 W/m 25,7 km/h (4 Bft) 100,00 %
03.01.2020 06:30 8,7 C 8,3 C 7,2 C 91 % 1017,9 hPa 0,0 l/m 0 min 0 min 0 W/m 25,7 km/h (4 Bft) 100,00 %
03.01.2020 06:32 8,7 C 8,3 C 7,2 C 91 % 1017,9 hPa 0,0 l/m 0 min 0 min 0 W/m 12,9 km/h (3 Bft) 100,00 %
03.01.2020 06:34 8,7 C 8,3 C 7,2 C 91 % 1017,9 hPa 0,0 l/m 0 min 0 min 0 W/m 25,7 km/h (4 Bft) 100,00 %
03.01.2020 06:36 8,8 C 8,3 C 7,8 C 90 % 1017,8 hPa 0,0 l/m 0 min 0 min 0 W/m 19,3 km/h (3 Bft) 100,00 %
03.01.2020 06:38 8,8 C 8,3 C 7,8 C 90 % 1017,9 hPa 0,0 l/m 0 min 0 min 0 W/m 29,0 km/h (5 Bft) 100,00 %
03.01.2020 06:40 8,8 C 8,3 C 7,8 C 90 % 1017,8 hPa 0,0 l/m 0 min 0 min 0 W/m 22,5 km/h (4 Bft) 97,87 %
03.01.2020 06:42 8,8 C 8,3 C 7,8 C 90 % 1017,9 hPa 0,0 l/m 0 min 0 min 0 W/m 35,4 km/h (5 Bft) 95,74 %
03.01.2020 06:44 8,8 C 8,3 C 7,8 C 90 % 1017,9 hPa 0,0 l/m 0 min 0 min 0 W/m 25,7 km/h (4 Bft) 97,87 %
03.01.2020 06:46 8,8 C 8,3 C 7,8 C 90 % 1017,9 hPa 0,0 l/m 0 min 0 min 0 W/m 32,2 km/h (5 Bft) 97,83 %
03.01.2020 06:48 8,8 C 8,3 C 7,8 C 90 % 1017,8 hPa 0,0 l/m 0 min 0 min 0 W/m 29,0 km/h (5 Bft) 97,87 %
03.01.2020 06:50 8,8 C 8,3 C 7,8 C 90 % 1017,8 hPa 0,0 l/m 0 min 0 min 0 W/m 19,3 km/h (3 Bft) 95,74 %
03.01.2020 06:52 8,8 C 8,3 C 7,8 C 90 % 1017,8 hPa 0,0 l/m 0 min 0 min 0 W/m 19,3 km/h (3 Bft) 95,74 %
03.01.2020 06:54 8,8 C 8,3 C 7,8 C 90 % 1017,9 hPa 0,0 l/m 0 min 0 min 0 W/m 22,5 km/h (4 Bft) 97,87 %
03.01.2020 06:56 8,8 C 8,3 C 7,8 C 90 % 1018,0 hPa 0,0 l/m 0 min 0 min 0 W/m 19,3 km/h (3 Bft) 97,87 %
03.01.2020 06:58 8,8 C 8,3 C 7,2 C 90 % 1017,9 hPa 0,0 l/m 0 min 0 min 0 W/m 6,4 km/h (2 Bft) 95,65 %
03.01.2020 07:00 8,8 C 8,3 C 7,2 C 90 % 1018,0 hPa 0,0 l/m 0 min 0 min 0 W/m 12,9 km/h (3 Bft) 97,87 %
03.01.2020 07:02 8,8 C 8,3 C 7,2 C 90 % 1017,9 hPa 0,0 l/m 0 min 0 min 0 W/m 22,5 km/h (4 Bft) 97,87 %
03.01.2020 07:04 8,8 C 8,3 C 7,2 C 90 % 1017,9 hPa 0,0 l/m 0 min 0 min 0 W/m 0,0 km/h (0 Bft) 97,87 %
03.01.2020 07:06 8,8 C 8,3 C 7,8 C 90 % 1018,0 hPa 0,0 l/m 0 min 0 min 0 W/m 22,5 km/h (4 Bft) 97,87 %
03.01.2020 07:08 8,8 C 8,3 C 7,8 C 90 % 1018,0 hPa 0,0 l/m 0 min 0 min 0 W/m 12,9 km/h (3 Bft) 97,87 %
03.01.2020 07:10 8,8 C 8,3 C 7,8 C 90 % 1017,9 hPa 0,0 l/m 0 min 0 min 0 W/m 9,7 km/h (2 Bft) 97,83 %
03.01.2020 07:12 8,8 C 8,3 C 7,2 C 90 % 1017,9 hPa 0,0 l/m 0 min 0 min 0 W/m 3,2 km/h (1 Bft) 97,87 %
03.01.2020 07:14 8,8 C 8,3 C 7,8 C 90 % 1018,0 hPa 0,0 l/m 0 min 0 min 0 W/m 32,2 km/h (5 Bft) 95,74 %
03.01.2020 07:16 8,8 C 8,3 C 7,8 C 90 % 1018,0 hPa 0,0 l/m 0 min 0 min 0 W/m 19,3 km/h (3 Bft) 97,87 %
03.01.2020 07:18 8,8 C 8,3 C 7,8 C 90 % 1018,0 hPa 0,0 l/m 0 min 0 min 0 W/m 19,3 km/h (3 Bft) 97,87 %
03.01.2020 07:20 8,8 C 8,3 C 7,8 C 90 % 1018,1 hPa 0,0 l/m 0 min 0 min 0 W/m 16,1 km/h (3 Bft) 97,87 %
03.01.2020 07:22 8,8 C 8,3 C 7,8 C 90 % 1018,1 hPa 0,0 l/m 0 min 0 min 0 W/m 19,3 km/h (3 Bft) 100,00 %
03.01.2020 07:24 8,8 C 8,3 C 7,8 C 90 % 1018,0 hPa 0,0 l/m 0 min 0 min 0 W/m 6,4 km/h (2 Bft) 97,87 %
03.01.2020 07:26 8,8 C 8,3 C 7,8 C 90 % 1018,1 hPa 0,0 l/m 0 min 0 min 0 W/m 16,1 km/h (3 Bft) 100,00 %
03.01.2020 07:28 8,8 C 8,3 C 7,8 C 90 % 1018,1 hPa 0,0 l/m 0 min 0 min 0 W/m 25,7 km/h (4 Bft) 97,87 %
03.01.2020 07:30 8,8 C 8,3 C 7,8 C 90 % 1018,2 hPa 0,0 l/m 0 min 0 min 0 W/m 12,9 km/h (3 Bft) 100,00 %
03.01.2020 07:32 8,8 C 8,3 C 7,8 C 90 % 1018,2 hPa 0,0 l/m 0 min 0 min 0 W/m 25,7 km/h (4 Bft) 97,83 %
03.01.2020 07:34 8,8 C 8,3 C 7,8 C 90 % 1018,2 hPa 0,0 l/m 0 min 0 min 0 W/m 19,3 km/h (3 Bft) 97,87 %
03.01.2020 07:36 8,8 C 8,3 C 7,8 C 90 % 1018,1 hPa 0,0 l/m 0 min 0 min 0 W/m 16,1 km/h (3 Bft) 93,62 %
03.01.2020 07:38 8,8 C 8,3 C 7,8 C 90 % 1018,2 hPa 0,0 l/m 0 min 0 min 0 W/m 22,5 km/h (4 Bft) 97,87 %
03.01.2020 07:40 8,8 C 8,3 C 7,8 C 90 % 1018,1 hPa 0,0 l/m 0 min 0 min 0 W/m 22,5 km/h (4 Bft) 97,87 %
03.01.2020 07:42 8,8 C 8,3 C 7,8 C 90 % 1018,1 hPa 0,0 l/m 0 min 0 min 0 W/m 19,3 km/h (3 Bft) 97,87 %
03.01.2020 07:44 8,8 C 8,3 C 7,8 C 90 % 1018,2 hPa 0,0 l/m 0 min 0 min 0 W/m 16,1 km/h (3 Bft) 97,83 %
03.01.2020 07:46 8,8 C 8,3 C 7,2 C 90 % 1018,1 hPa 0,0 l/m 0 min 0 min 0 W/m 3,2 km/h (1 Bft) 97,87 %
03.01.2020 07:48 8,8 C 8,3 C 7,2 C 90 % 1018,2 hPa 0,0 l/m 0 min 0 min 0 W/m 19,3 km/h (3 Bft) 95,74 %
03.01.2020 07:50 8,8 C 7,8 C 7,2 C 90 % 1018,2 hPa 0,0 l/m 0 min 0 min 0 W/m 16,1 km/h (3 Bft) 95,74 %
03.01.2020 07:52 8,8 C 7,8 C 7,2 C 90 % 1018,1 hPa 0,0 l/m 0 min 0 min 0 W/m 0,0 km/h (0 Bft) 95,74 %
03.01.2020 07:54 8,8 C 7,8 C 7,2 C 90 % 1018,1 hPa 0,0 l/m 0 min 0 min 0 W/m 19,3 km/h (3 Bft) 97,87 %
03.01.2020 07:56 8,8 C 7,8 C 7,2 C 90 % 1018,1 hPa 0,0 l/m 0 min 0 min 0 W/m 22,5 km/h (4 Bft) 97,83 %
03.01.2020 07:58 8,8 C 7,8 C 7,2 C 90 % 1018,1 hPa 0,0 l/m 0 min 0 min 0 W/m 22,5 km/h (4 Bft) 97,87 %
03.01.2020 08:00 8,8 C 7,8 C 7,2 C 90 % 1018,1 hPa 0,0 l/m 0 min 0 min 0 W/m 0,0 km/h (0 Bft) 97,87 %
03.01.2020 08:02 8,8 C 7,8 C 7,2 C 90 % 1018,2 hPa 0,0 l/m 0 min 0 min 0 W/m 3,2 km/h (1 Bft) 95,74 %
03.01.2020 08:04 8,8 C 7,8 C 7,2 C 90 % 1018,2 hPa 0,0 l/m 0 min 0 min 0 W/m 19,3 km/h (3 Bft) 97,87 %
03.01.2020 08:06 8,8 C 7,8 C 7,2 C 90 % 1018,2 hPa 0,0 l/m 0 min 0 min 0 W/m 6,4 km/h (2 Bft) 97,87 %
03.01.2020 08:08 8,8 C 7,2 C 7,2 C 90 % 1018,3 hPa 0,0 l/m 0 min 0 min 0 W/m 12,9 km/h (3 Bft) 97,83 %
03.01.2020 08:10 8,8 C 7,2 C 6,7 C 91 % 1018,2 hPa 0,0 l/m 0 min 0 min 0 W/m 6,4 km/h (2 Bft) 97,87 %
03.01.2020 08:12 8,8 C 7,2 C 6,7 C 91 % 1018,2 hPa 0,0 l/m 0 min 0 min 0 W/m 12,9 km/h (3 Bft) 95,74 %
03.01.2020 08:14 8,7 C 7,2 C 6,7 C 91 % 1018,2 hPa 0,0 l/m 0 min 0 min 0 W/m 12,9 km/h (3 Bft) 95,74 %
03.01.2020 08:16 8,7 C 7,2 C 6,7 C 91 % 1018,2 hPa 0,0 l/m 0 min 0 min 0 W/m 19,3 km/h (3 Bft) 95,74 %
03.01.2020 08:18 8,7 C 7,2 C 6,7 C 91 % 1018,1 hPa 0,0 l/m 0 min 0 min 0 W/m 22,5 km/h (4 Bft) 97,87 %
03.01.2020 08:20 8,7 C 7,8 C 6,7 C 91 % 1018,1 hPa 0,0 l/m 0 min 0 min 0 W/m 0,0 km/h (0 Bft) 95,65 %
03.01.2020 08:22 8,7 C 7,8 C 6,7 C 91 % 1018,1 hPa 0,0 l/m 0 min 0 min 0 W/m 0,0 km/h (0 Bft) 95,74 %
03.01.2020 08:24 8,7 C 7,8 C 7,2 C 91 % 1018,0 hPa 0,0 l/m 0 min 0 min 0 W/m 19,3 km/h (3 Bft) 95,74 %
03.01.2020 08:26 8,7 C 7,8 C 7,2 C 91 % 1018,0 hPa 0,0 l/m 0 min 0 min 0 W/m 19,3 km/h (3 Bft) 95,74 %
03.01.2020 08:28 8,7 C 8,3 C 7,2 C 91 % 1018,0 hPa 0,0 l/m 0 min 0 min 0 W/m 29,0 km/h (5 Bft) 95,74 %
03.01.2020 08:30 8,7 C 8,3 C 7,2 C 91 % 1017,9 hPa 0,0 l/m 0 min 0 min 0 W/m 16,1 km/h (3 Bft) 95,74 %
03.01.2020 08:32 8,7 C 8,3 C 7,2 C 91 % 1018,0 hPa 0,0 l/m 0 min 0 min 0 W/m 22,5 km/h (4 Bft) 95,65 %
03.01.2020 08:34 8,7 C 8,3 C 7,8 C 91 % 1018,0 hPa 0,0 l/m 0 min 0 min 0 W/m 3,2 km/h (1 Bft) 93,62 %
03.01.2020 08:36 8,7 C 8,3 C 7,8 C 91 % 1017,9 hPa 0,0 l/m 0 min 0 min 0 W/m 16,1 km/h (3 Bft) 97,87 %
03.01.2020 08:38 8,7 C 8,3 C 7,8 C 91 % 1017,9 hPa 0,0 l/m 0 min 0 min 0 W/m 9,7 km/h (2 Bft) 97,87 %
03.01.2020 08:40 8,7 C 8,3 C 7,8 C 91 % 1017,9 hPa 0,0 l/m 0 min 0 min 0 W/m 19,3 km/h (3 Bft) 97,87 %
03.01.2020 08:42 8,8 C 8,3 C 7,8 C 91 % 1018,0 hPa 0,0 l/m 0 min 0 min 0 W/m 16,1 km/h (3 Bft) 95,65 %
03.01.2020 08:44 8,8 C 8,3 C 7,8 C 91 % 1018,0 hPa 0,0 l/m 0 min 0 min 0 W/m 25,7 km/h (4 Bft) 97,87 %
03.01.2020 08:46 8,8 C 8,3 C 7,8 C 91 % 1018,0 hPa 0,0 l/m 0 min 0 min 0 W/m 12,9 km/h (3 Bft) 95,74 %
03.01.2020 08:48 8,8 C 8,3 C 7,8 C 91 % 1018,0 hPa 0,0 l/m 0 min 0 min 0 W/m 16,1 km/h (3 Bft) 97,87 %
03.01.2020 08:50 8,8 C 8,3 C 7,8 C 90 % 1018,0 hPa 0,0 l/m 0 min 0 min 0 W/m 22,5 km/h (4 Bft) 95,74 %
03.01.2020 08:52 8,8 C 8,3 C 7,8 C 90 % 1017,9 hPa 0,0 l/m 0 min 0 min 0 W/m 12,9 km/h (3 Bft) 100,00 %
03.01.2020 08:54 8,8 C 8,3 C 7,8 C 90 % 1018,0 hPa 0,0 l/m 0 min 0 min 0 W/m 22,5 km/h (4 Bft) 97,83 %
03.01.2020 08:56 8,9 C 8,3 C 7,8 C 90 % 1018,0 hPa 0,0 l/m 0 min 0 min 0 W/m 19,3 km/h (3 Bft) 97,87 %
03.01.2020 08:58 8,9 C 8,3 C 7,8 C 90 % 1018,0 hPa 0,0 l/m 0 min 0 min 0 W/m 3,2 km/h (1 Bft) 97,87 %
03.01.2020 09:00 8,9 C 8,3 C 7,8 C 90 % 1018,0 hPa 0,0 l/m 0 min 0 min 0 W/m 25,7 km/h (4 Bft) 97,87 %
03.01.2020 09:02 8,9 C 8,3 C 7,8 C 90 % 1018,0 hPa 0,0 l/m 0 min 2 min 0 W/m 12,9 km/h (3 Bft) 97,87 %
03.01.2020 09:04 8,9 C 8,3 C 7,2 C 90 % 1018,0 hPa 0,0 l/m 0 min 0 min 0 W/m 16,1 km/h (3 Bft) 97,87 %
03.01.2020 09:06 9,0 C 8,3 C 7,2 C 90 % 1017,9 hPa 0,0 l/m 0 min 0 min 0 W/m 12,9 km/h (3 Bft) 100,00 %
03.01.2020 09:08 9,0 C 8,3 C 7,2 C 90 % 1018,0 hPa 0,0 l/m 0 min 0 min 0 W/m 9,7 km/h (2 Bft) 100,00 %
03.01.2020 09:10 9,0 C 8,3 C 7,2 C 90 % 1018,0 hPa 0,0 l/m 0 min 0 min 0 W/m 0,0 km/h (0 Bft) 100,00 %
03.01.2020 09:12 9,0 C 8,3 C 7,2 C 90 % 1018,0 hPa 0,0 l/m 0 min 0 min 0 W/m 0,0 km/h (0 Bft) 100,00 %
03.01.2020 09:14 9,0 C 8,3 C 7,8 C 90 % 1018,0 hPa 0,0 l/m 0 min 0 min 0 W/m 3,2 km/h (1 Bft) 97,87 %
03.01.2020 09:16 9,0 C 8,3 C 7,8 C 90 % 1018,0 hPa 0,0 l/m 0 min 0 min 0 W/m 19,3 km/h (3 Bft) 95,74 %
03.01.2020 09:18 9,0 C 8,3 C 7,8 C 90 % 1018,0 hPa 0,0 l/m 0 min 0 min 1 W/m 22,5 km/h (4 Bft) 97,83 %
03.01.2020 09:20 9,1 C 8,3 C 7,8 C 90 % 1017,9 hPa 0,0 l/m 0 min 0 min 5 W/m 22,5 km/h (4 Bft) 93,62 %
03.01.2020 09:22 9,1 C 8,3 C 7,8 C 90 % 1017,9 hPa 0,0 l/m 0 min 0 min 5 W/m 29,0 km/h (5 Bft) 97,87 %
03.01.2020 09:24 9,1 C 8,3 C 7,8 C 90 % 1017,9 hPa 0,0 l/m 0 min 0 min 5 W/m 6,4 km/h (2 Bft) 97,87 %
03.01.2020 09:26 9,1 C 8,3 C 7,8 C 90 % 1017,9 hPa 0,0 l/m 0 min 0 min 5 W/m 3,2 km/h (1 Bft) 97,87 %
03.01.2020 09:28 9,1 C 8,3 C 7,8 C 90 % 1018,0 hPa 0,0 l/m 0 min 0 min 5 W/m 22,5 km/h (4 Bft) 97,87 %
03.01.2020 09:30 9,1 C 8,3 C 7,8 C 90 % 1017,9 hPa 0,0 l/m 0 min 0 min 4 W/m 12,9 km/h (3 Bft) 97,83 %
03.01.2020 09:32 9,1 C 8,3 C 7,8 C 90 % 1017,9 hPa 0,0 l/m 0 min 0 min 0 W/m 16,1 km/h (3 Bft) 100,00 %
03.01.2020 09:34 9,1 C 8,3 C 7,8 C 90 % 1018,0 hPa 0,0 l/m 0 min 0 min 0 W/m 6,4 km/h (2 Bft) 95,74 %
03.01.2020 09:36 9,2 C 8,3 C 7,8 C 90 % 1018,0 hPa 0,0 l/m 0 min 0 min 0 W/m 6,4 km/h (2 Bft) 97,87 %
03.01.2020 09:38 9,2 C 8,3 C 7,8 C 89 % 1017,9 hPa 0,0 l/m 0 min 0 min 2 W/m 0,0 km/h (0 Bft) 97,87 %
03.01.2020 09:40 9,2 C 8,3 C 7,8 C 89 % 1017,8 hPa 0,0 l/m 0 min 0 min 5 W/m 19,3 km/h (3 Bft) 97,87 %
03.01.2020 09:42 9,2 C 8,3 C 7,8 C 89 % 1017,8 hPa 0,0 l/m 0 min 0 min 5 W/m 19,3 km/h (3 Bft) 97,83 %
03.01.2020 09:44 9,2 C 8,3 C 7,8 C 89 % 1017,8 hPa 0,0 l/m 0 min 0 min 6 W/m 3,2 km/h (1 Bft) 97,87 %
03.01.2020 09:46 9,2 C 8,3 C 7,8 C 89 % 1017,8 hPa 0,0 l/m 0 min 0 min 8 W/m 19,3 km/h (3 Bft) 97,87 %
03.01.2020 09:48 9,2 C 8,3 C 7,8 C 89 % 1017,7 hPa 0,0 l/m 0 min 0 min 10 W/m 22,5 km/h (4 Bft) 97,87 %
03.01.2020 09:50 9,2 C 8,3 C 7,8 C 90 % 1017,8 hPa 0,0 l/m 0 min 0 min 9 W/m 9,7 km/h (2 Bft) 95,74 %
03.01.2020 09:52 9,2 C 8,3 C 7,8 C 90 % 1017,8 hPa 0,0 l/m 0 min 0 min 10 W/m 19,3 km/h (3 Bft) 95,65 %
03.01.2020 09:54 9,2 C 8,3 C 7,8 C 89 % 1017,7 hPa 0,0 l/m 0 min 0 min 11 W/m 16,1 km/h (3 Bft) 97,87 %
03.01.2020 09:56 9,2 C 8,3 C 7,8 C 90 % 1017,8 hPa 0,0 l/m 0 min 0 min 16 W/m 19,3 km/h (3 Bft) 100,00 %
03.01.2020 09:58 9,2 C 7,8 C 7,8 C 90 % 1017,8 hPa 0,0 l/m 0 min 0 min 18 W/m 19,3 km/h (3 Bft) 100,00 %
03.01.2020 10:00 9,2 C 7,8 C 7,2 C 90 % 1017,7 hPa 0,0 l/m 0 min 0 min 14 W/m 12,9 km/h (3 Bft) 97,87 %
03.01.2020 10:02 9,2 C 7,2 C 7,2 C 90 % 1017,8 hPa 0,0 l/m 0 min 0 min 13 W/m 3,2 km/h (1 Bft) 100,00 %
03.01.2020 10:04 9,2 C 7,2 C 7,2 C 91 % 1017,8 hPa 0,0 l/m 0 min 0 min 12 W/m 3,2 km/h (1 Bft) 100,00 %
03.01.2020 10:06 9,1 C 7,2 C 6,7 C 91 % 1017,8 hPa 0,0 l/m 0 min 2 min 11 W/m 12,9 km/h (3 Bft) 100,00 %
03.01.2020 10:08 9,1 C 7,2 C 6,7 C 91 % 1017,8 hPa 0,0 l/m 0 min 0 min 11 W/m 19,3 km/h (3 Bft) 91,49 %
03.01.2020 10:10 9,1 C 7,2 C 6,7 C 91 % 1017,8 hPa 0,0 l/m 0 min 0 min 15 W/m 6,4 km/h (2 Bft) 100,00 %
03.01.2020 10:12 9,0 C 7,2 C 6,7 C 92 % 1017,8 hPa 0,0 l/m 0 min 0 min 14 W/m 22,5 km/h (4 Bft) 100,00 %
03.01.2020 10:14 9,0 C 7,2 C 6,7 C 92 % 1017,8 hPa 0,0 l/m 0 min 0 min 15 W/m 12,9 km/h (3 Bft) 100,00 %
03.01.2020 10:16 8,9 C 7,2 C 6,7 C 92 % 1017,8 hPa 0,0 l/m 0 min 0 min 16 W/m 6,4 km/h (2 Bft) 100,00 %
03.01.2020 10:18 8,9 C 7,8 C 7,2 C 92 % 1017,8 hPa 0,0 l/m 0 min 0 min 13 W/m 12,9 km/h (3 Bft) 100,00 %
03.01.2020 10:20 8,9 C 7,8 C 7,2 C 92 % 1017,8 hPa 0,0 l/m 0 min 0 min 16 W/m 12,9 km/h (3 Bft) 100,00 %
03.01.2020 10:22 8,8 C 7,8 C 7,2 C 93 % 1017,8 hPa 0,0 l/m 0 min 0 min 14 W/m 0,0 km/h (0 Bft) 100,00 %
03.01.2020 10:24 8,8 C 7,8 C 7,2 C 93 % 1017,8 hPa 0,0 l/m 0 min 0 min 13 W/m 0,0 km/h (0 Bft) 100,00 %
03.01.2020 10:26 8,8 C 8,3 C 7,2 C 93 % 1017,9 hPa 0,0 l/m 0 min 0 min 12 W/m 25,7 km/h (4 Bft) 100,00 %
03.01.2020 10:28 8,8 C 8,3 C 7,2 C 93 % 1017,8 hPa 0,0 l/m 0 min 0 min 12 W/m 9,7 km/h (2 Bft) 100,00 %
03.01.2020 10:30 8,8 C 8,3 C 7,2 C 93 % 1017,8 hPa 0,0 l/m 0 min 0 min 15 W/m 3,2 km/h (1 Bft) 100,00 %
03.01.2020 10:32 8,8 C 8,3 C 7,8 C 93 % 1017,8 hPa 0,0 l/m 0 min 0 min 18 W/m 29,0 km/h (5 Bft) 100,00 %
03.01.2020 10:34 8,8 C 8,3 C 7,8 C 93 % 1017,8 hPa 0,0 l/m 0 min 0 min 16 W/m 38,6 km/h (5 Bft) 100,00 %
03.01.2020 10:36 8,8 C 8,3 C 7,8 C 93 % 1017,8 hPa 0,0 l/m 0 min 0 min 18 W/m 25,7 km/h (4 Bft) 100,00 %
03.01.2020 10:38 8,8 C 7,8 C 7,2 C 93 % 1017,7 hPa 0,0 l/m 0 min 2 min 20 W/m 25,7 km/h (4 Bft) 100,00 %
03.01.2020 10:40 8,8 C 7,8 C 7,2 C 93 % 1017,8 hPa 0,0 l/m 0 min 2 min 19 W/m 16,1 km/h (3 Bft) 100,00 %
03.01.2020 10:42 8,8 C 7,8 C 7,2 C 93 % 1017,8 hPa 0,0 l/m 0 min 2 min 16 W/m 29,0 km/h (5 Bft) 100,00 %
03.01.2020 10:44 8,8 C 7,2 C 6,7 C 93 % 1017,8 hPa 0,0 l/m 0 min 2 min 15 W/m 25,7 km/h (4 Bft) 100,00 %
03.01.2020 10:46 8,8 C 7,2 C 6,7 C 93 % 1017,8 hPa 0,0 l/m 0 min 2 min 16 W/m 25,7 km/h (4 Bft) 100,00 %
03.01.2020 10:48 8,8 C 7,2 C 6,7 C 94 % 1017,7 hPa 0,0 l/m 0 min 2 min 21 W/m 29,0 km/h (5 Bft) 97,87 %
03.01.2020 10:50 8,8 C 7,2 C 6,7 C 94 % 1017,7 hPa 0,0 l/m 0 min 2 min 24 W/m 25,7 km/h (4 Bft) 97,83 %
03.01.2020 10:52 8,8 C 7,2 C 6,7 C 94 % 1017,8 hPa 0,0 l/m 0 min 2 min 24 W/m 29,0 km/h (5 Bft) 100,00 %
03.01.2020 10:54 8,8 C 7,2 C 6,7 C 94 % 1017,8 hPa 0,2 l/m 0 min 2 min 25 W/m 35,4 km/h (5 Bft) 100,00 %
03.01.2020 10:56 8,8 C 7,2 C 7,2 C 94 % 1017,8 hPa 0,0 l/m 0 min 2 min 34 W/m 35,4 km/h (5 Bft) 93,62 %
03.01.2020 10:58 8,8 C 7,2 C 7,2 C 95 % 1017,8 hPa 0,0 l/m 0 min 2 min 47 W/m 19,3 km/h (3 Bft) 95,74 %
03.01.2020 11:00 8,8 C 7,2 C 7,2 C 95 % 1017,8 hPa 0,0 l/m 0 min 2 min 52 W/m 25,7 km/h (4 Bft) 95,74 %
03.01.2020 11:02 8,8 C 7,2 C 7,2 C 95 % 1017,8 hPa 0,0 l/m 0 min 2 min 46 W/m 25,7 km/h (4 Bft) 97,83 %
03.01.2020 11:04 8,8 C 7,2 C 7,2 C 95 % 1017,8 hPa 0,0 l/m 0 min 2 min 42 W/m 25,7 km/h (4 Bft) 95,74 %
03.01.2020 11:06 8,8 C 7,2 C 7,2 C 95 % 1017,8 hPa 0,0 l/m 0 min 2 min 35 W/m 19,3 km/h (3 Bft) 97,87 %
03.01.2020 11:08 8,8 C 7,2 C 7,2 C 95 % 1017,8 hPa 0,0 l/m 0 min 2 min 34 W/m 19,3 km/h (3 Bft) 95,74 %
03.01.2020 11:10 8,8 C 7,2 C 7,2 C 95 % 1017,8 hPa 0,0 l/m 0 min 0 min 38 W/m 29,0 km/h (5 Bft) 95,74 %
03.01.2020 11:12 8,8 C 7,2 C 7,2 C 95 % 1017,8 hPa 0,0 l/m 0 min 2 min 46 W/m 41,8 km/h (6 Bft) 95,74 %
03.01.2020 11:14 8,8 C 7,2 C 7,2 C 96 % 1017,8 hPa 0,0 l/m 0 min 2 min 42 W/m 35,4 km/h (5 Bft) 95,65 %
03.01.2020 11:16 8,7 C 7,2 C 7,2 C 96 % 1017,7 hPa 0,0 l/m 0 min 2 min 53 W/m 35,4 km/h (5 Bft) 97,87 %
03.01.2020 11:18 8,7 C 7,8 C 7,2 C 96 % 1017,6 hPa 0,0 l/m 0 min 2 min 90 W/m 32,2 km/h (5 Bft) 95,74 %
03.01.2020 11:20 8,8 C 7,8 C 7,2 C 96 % 1017,6 hPa 0,0 l/m 0 min 2 min 101 W/m 32,2 km/h (5 Bft) 93,62 %
03.01.2020 11:22 8,8 C 7,8 C 7,2 C 96 % 1017,6 hPa 0,0 l/m 0 min 2 min 94 W/m 29,0 km/h (5 Bft) 95,74 %
03.01.2020 11:24 8,8 C 7,8 C 7,2 C 96 % 1017,7 hPa 0,0 l/m 0 min 0 min 66 W/m 29,0 km/h (5 Bft) 95,74 %
03.01.2020 11:26 8,8 C 7,8 C 7,2 C 96 % 1017,6 hPa 0,0 l/m 0 min 2 min 56 W/m 19,3 km/h (3 Bft) 95,65 %
03.01.2020 11:28 8,8 C 7,8 C 7,2 C 96 % 1017,6 hPa 0,0 l/m 0 min 2 min 52 W/m 41,8 km/h (6 Bft) 93,62 %
03.01.2020 11:30 8,8 C 7,8 C 7,2 C 96 % 1017,6 hPa 0,0 l/m 0 min 2 min 56 W/m 3,2 km/h (1 Bft) 95,74 %
03.01.2020 11:32 8,8 C 7,8 C 7,2 C 96 % 1017,7 hPa 0,0 l/m 0 min 2 min 49 W/m 12,9 km/h (3 Bft) 95,74 %
03.01.2020 11:34 8,8 C 7,8 C 7,2 C 96 % 1017,6 hPa 0,0 l/m 0 min 2 min 45 W/m 29,0 km/h (5 Bft) 93,62 %
03.01.2020 11:36 8,8 C 7,8 C 7,2 C 96 % 1017,6 hPa 0,0 l/m 0 min 2 min 85 W/m 29,0 km/h (5 Bft) 95,74 %
03.01.2020 11:38 8,8 C 8,3 C 7,2 C 96 % 1017,5 hPa 0,0 l/m 0 min 2 min 100 W/m 25,7 km/h (4 Bft) 93,62 %
03.01.2020 11:40 8,8 C 8,3 C 7,8 C 96 % 1017,5 hPa 0,0 l/m 0 min 2 min 126 W/m 19,3 km/h (3 Bft) 95,74 %
03.01.2020 11:42 8,9 C 8,3 C 7,8 C 96 % 1017,5 hPa 0,0 l/m 0 min 2 min 118 W/m 16,1 km/h (3 Bft) 97,83 %
03.01.2020 11:44 8,9 C 8,3 C 7,8 C 96 % 1017,5 hPa 0,0 l/m 0 min 2 min 94 W/m 25,7 km/h (4 Bft) 95,74 %
03.01.2020 11:46 8,9 C 8,3 C 7,8 C 96 % 1017,6 hPa 0,0 l/m 0 min 2 min 56 W/m 19,3 km/h (3 Bft) 95,74 %
03.01.2020 11:48 9,0 C 8,3 C 7,8 C 96 % 1017,5 hPa 0,0 l/m 0 min 0 min 44 W/m 25,7 km/h (4 Bft) 93,62 %
03.01.2020 11:50 9,0 C 8,3 C 7,8 C 96 % 1017,5 hPa 0,0 l/m 0 min 0 min 75 W/m 48,3 km/h (6 Bft) 93,62 %
03.01.2020 11:52 9,1 C 8,3 C 7,8 C 96 % 1017,5 hPa 0,0 l/m 0 min 0 min 85 W/m 25,7 km/h (4 Bft) 93,62 %
03.01.2020 11:54 9,1 C 8,3 C 7,8 C 96 % 1017,4 hPa 0,0 l/m 0 min 0 min 78 W/m 29,0 km/h (5 Bft) 97,83 %
03.01.2020 11:56 9,1 C 8,3 C 7,8 C 96 % 1017,5 hPa 0,0 l/m 0 min 0 min 116 W/m 6,4 km/h (2 Bft) 93,62 %
03.01.2020 11:58 9,1 C 8,3 C 7,8 C 96 % 1017,4 hPa 0,0 l/m 0 min 0 min 122 W/m 19,3 km/h (3 Bft) 95,74 %
03.01.2020 12:00 9,1 C 8,9 C 7,8 C 96 % 1017,4 hPa 0,0 l/m 0 min 0 min 134 W/m 38,6 km/h (5 Bft) 95,74 %
03.01.2020 12:02 9,2 C 8,9 C 7,8 C 96 % 1017,4 hPa 0,0 l/m 2 min 0 min 156 W/m 22,5 km/h (4 Bft) 97,87 %
03.01.2020 12:04 9,2 C 8,9 C 7,8 C 96 % 1017,3 hPa 0,0 l/m 0 min 0 min 150 W/m 29,0 km/h (5 Bft) 97,87 %
03.01.2020 12:06 9,2 C 8,9 C 7,8 C 96 % 1017,4 hPa 0,0 l/m 0 min 0 min 111 W/m 25,7 km/h (4 Bft) 95,65 %
03.01.2020 12:08 9,3 C 8,3 C 7,8 C 96 % 1017,4 hPa 0,0 l/m 0 min 0 min 88 W/m 12,9 km/h (3 Bft) 95,74 %
03.01.2020 12:10 9,3 C 8,3 C 7,8 C 96 % 1017,4 hPa 0,0 l/m 0 min 0 min 86 W/m 22,5 km/h (4 Bft) 95,74 %
03.01.2020 12:12 9,3 C 8,3 C 7,8 C 95 % 1017,4 hPa 0,0 l/m 0 min 0 min 67 W/m 41,8 km/h (6 Bft) 97,87 %
03.01.2020 12:14 9,3 C 8,3 C 7,8 C 96 % 1017,4 hPa 0,0 l/m 0 min 2 min 54 W/m 19,3 km/h (3 Bft) 97,87 %
03.01.2020 12:16 9,3 C 7,8 C 7,8 C 96 % 1017,4 hPa 0,0 l/m 0 min 2 min 53 W/m 38,6 km/h (5 Bft) 97,83 %
03.01.2020 12:18 9,3 C 7,8 C 7,8 C 95 % 1017,4 hPa 0,0 l/m 0 min 2 min 42 W/m 6,4 km/h (2 Bft) 97,87 %
03.01.2020 12:20 9,3 C 7,8 C 7,8 C 95 % 1017,3 hPa 0,0 l/m 0 min 2 min 48 W/m 25,7 km/h (4 Bft) 97,87 %
03.01.2020 12:22 9,3 C 7,8 C 7,8 C 95 % 1017,3 hPa 0,0 l/m 0 min 2 min 46 W/m 32,2 km/h (5 Bft) 97,87 %
03.01.2020 12:24 9,2 C 7,8 C 7,2 C 95 % 1017,3 hPa 0,0 l/m 0 min 2 min 36 W/m 25,7 km/h (4 Bft) 97,87 %
03.01.2020 12:26 9,2 C 7,8 C 7,2 C 95 % 1017,4 hPa 0,0 l/m 0 min 2 min 32 W/m 22,5 km/h (4 Bft) 95,74 %
03.01.2020 12:29 9,2 C 7,8 C 7,2 C 95 % 1017,3 hPa 0,0 l/m 0 min 0 min 29 W/m 29,0 km/h (5 Bft) 97,14 %
03.01.2020 12:30 9,2 C 7,8 C 7,2 C 95 % 1017,3 hPa 0,0 l/m 0 min 0 min 30 W/m 22,5 km/h (4 Bft) 95,65 %
03.01.2020 12:32 9,2 C 7,8 C 7,2 C 95 % 1017,3 hPa 0,0 l/m 0 min 2 min 30 W/m 35,4 km/h (5 Bft) 97,87 %
03.01.2020 12:34 9,2 C 7,8 C 7,2 C 95 % 1017,3 hPa 0,0 l/m 0 min 2 min 26 W/m 29,0 km/h (5 Bft) 100,00 %
03.01.2020 12:36 9,2 C 7,8 C 7,2 C 96 % 1017,2 hPa 0,0 l/m 0 min 0 min 26 W/m 16,1 km/h (3 Bft) 100,00 %
03.01.2020 12:38 9,1 C 7,8 C 7,2 C 96 % 1017,3 hPa 0,0 l/m 0 min 0 min 25 W/m 19,3 km/h (3 Bft) 100,00 %
03.01.2020 12:40 9,1 C 7,8 C 7,2 C 96 % 1017,1 hPa 0,0 l/m 0 min 2 min 25 W/m 32,2 km/h (5 Bft) 100,00 %
03.01.2020 12:42 9,1 C 7,8 C 7,2 C 96 % 1017,1 hPa 0,0 l/m 0 min 0 min 24 W/m 22,5 km/h (4 Bft) 97,87 %
03.01.2020 12:44 9,1 C 7,8 C 7,2 C 96 % 1017,2 hPa 0,0 l/m 0 min 0 min 20 W/m 22,5 km/h (4 Bft) 97,87 %
03.01.2020 12:46 9,1 C 7,8 C 7,8 C 96 % 1017,2 hPa 0,0 l/m 0 min 0 min 20 W/m 35,4 km/h (5 Bft) 95,74 %
03.01.2020 12:48 9,1 C 8,3 C 7,8 C 96 % 1017,0 hPa 0,0 l/m 0 min 0 min 23 W/m 25,7 km/h (4 Bft) 100,00 %
03.01.2020 12:50 9,1 C 8,3 C 7,8 C 96 % 1017,1 hPa 0,0 l/m 0 min 0 min 20 W/m 19,3 km/h (3 Bft) 100,00 %
03.01.2020 12:52 9,1 C 8,3 C 7,8 C 96 % 1017,1 hPa 0,0 l/m 0 min 0 min 19 W/m 19,3 km/h (3 Bft) 95,65 %
03.01.2020 12:54 9,1 C 8,3 C 7,8 C 96 % 1017,0 hPa 0,0 l/m 0 min 0 min 19 W/m 35,4 km/h (5 Bft) 97,87 %
03.01.2020 12:56 9,1 C 8,3 C 7,8 C 96 % 1017,0 hPa 0,0 l/m 0 min 2 min 20 W/m 32,2 km/h (5 Bft) 100,00 %
03.01.2020 12:58 9,1 C 8,3 C 7,8 C 96 % 1017,0 hPa 0,0 l/m 0 min 2 min 24 W/m 29,0 km/h (5 Bft) 100,00 %
03.01.2020 13:00 9,1 C 8,3 C 7,8 C 96 % 1017,0 hPa 0,0 l/m 0 min 2 min 25 W/m 29,0 km/h (5 Bft) 100,00 %
03.01.2020 13:02 9,1 C 7,8 C 7,8 C 96 % 1016,9 hPa 0,0 l/m 0 min 2 min 29 W/m 25,7 km/h (4 Bft) 100,00 %
03.01.2020 13:04 9,1 C 7,8 C 7,8 C 96 % 1017,0 hPa 0,0 l/m 0 min 2 min 25 W/m 32,2 km/h (5 Bft) 97,87 %
03.01.2020 13:06 9,1 C 7,8 C 7,2 C 96 % 1016,9 hPa 0,0 l/m 0 min 2 min 30 W/m 35,4 km/h (5 Bft) 100,00 %
03.01.2020 13:08 9,1 C 7,8 C 7,2 C 96 % 1016,8 hPa 0,0 l/m 0 min 2 min 35 W/m 19,3 km/h (3 Bft) 100,00 %
03.01.2020 13:10 9,1 C 7,8 C 7,2 C 96 % 1016,9 hPa 0,0 l/m 0 min 2 min 38 W/m 9,7 km/h (2 Bft) 100,00 %
03.01.2020 13:12 9,1 C 7,8 C 7,2 C 96 % 1016,9 hPa 0,0 l/m 0 min 2 min 39 W/m 19,3 km/h (3 Bft) 100,00 %
03.01.2020 13:14 9,1 C 7,8 C 7,2 C 96 % 1016,9 hPa 0,0 l/m 0 min 2 min 46 W/m 19,3 km/h (3 Bft) 100,00 %
03.01.2020 13:16 9,2 C 7,8 C 7,8 C 96 % 1016,8 hPa 0,0 l/m 0 min 2 min 43 W/m 32,2 km/h (5 Bft) 100,00 %
03.01.2020 13:18 9,2 C 7,8 C 7,8 C 96 % 1016,8 hPa 0,0 l/m 0 min 2 min 40 W/m 32,2 km/h (5 Bft) 100,00 %
03.01.2020 13:20 9,2 C 7,8 C 7,8 C 96 % 1016,8 hPa 0,0 l/m 0 min 2 min 43 W/m 25,7 km/h (4 Bft) 100,00 %
03.01.2020 13:22 9,1 C 7,8 C 7,2 C 96 % 1016,8 hPa 0,0 l/m 0 min 2 min 44 W/m 25,7 km/h (4 Bft) 100,00 %
03.01.2020 13:24 9,2 C 7,8 C 7,2 C 96 % 1016,8 hPa 0,0 l/m 0 min 2 min 41 W/m 25,7 km/h (4 Bft) 100,00 %
03.01.2020 13:26 9,2 C 7,8 C 7,2 C 96 % 1016,8 hPa 0,0 l/m 0 min 2 min 39 W/m 25,7 km/h (4 Bft) 100,00 %
03.01.2020 13:28 9,2 C 7,8 C 7,2 C 96 % 1016,7 hPa 0,0 l/m 0 min 2 min 37 W/m 12,9 km/h (3 Bft) 100,00 %
03.01.2020 13:30 9,2 C 7,8 C 7,2 C 96 % 1016,7 hPa 0,0 l/m 0 min 2 min 37 W/m 25,7 km/h (4 Bft) 100,00 %
03.01.2020 13:32 9,2 C 7,8 C 7,2 C 96 % 1016,7 hPa 0,2 l/m 0 min 2 min 36 W/m 19,3 km/h (3 Bft) 100,00 %
03.01.2020 13:34 9,2 C 7,8 C 7,2 C 96 % 1016,7 hPa 0,0 l/m 0 min 2 min 35 W/m 22,5 km/h (4 Bft) 100,00 %
03.01.2020 13:36 9,2 C 7,8 C 7,2 C 96 % 1016,6 hPa 0,0 l/m 0 min 2 min 35 W/m 29,0 km/h (5 Bft) 97,87 %
03.01.2020 13:38 9,2 C 7,8 C 7,2 C 96 % 1016,6 hPa 0,0 l/m 0 min 2 min 40 W/m 25,7 km/h (4 Bft) 100,00 %
03.01.2020 13:40 9,2 C 7,8 C 7,2 C 96 % 1016,6 hPa 0,0 l/m 0 min 2 min 46 W/m 38,6 km/h (5 Bft) 100,00 %
03.01.2020 13:42 9,2 C 7,8 C 7,2 C 96 % 1016,6 hPa 0,0 l/m 0 min 2 min 54 W/m 22,5 km/h (4 Bft) 100,00 %
03.01.2020 13:44 9,2 C 7,8 C 7,2 C 96 % 1016,5 hPa 0,0 l/m 0 min 2 min 61 W/m 32,2 km/h (5 Bft) 97,87 %
03.01.2020 13:46 9,2 C 7,8 C 7,8 C 96 % 1016,6 hPa 0,0 l/m 0 min 0 min 62 W/m 22,5 km/h (4 Bft) 100,00 %
03.01.2020 13:48 9,2 C 7,8 C 7,8 C 96 % 1016,6 hPa 0,0 l/m 0 min 0 min 62 W/m 29,0 km/h (5 Bft) 100,00 %
03.01.2020 13:50 9,2 C 7,8 C 7,8 C 96 % 1016,6 hPa 0,0 l/m 0 min 0 min 59 W/m 22,5 km/h (4 Bft) 100,00 %
03.01.2020 13:52 9,2 C 8,3 C 7,8 C 96 % 1016,6 hPa 0,0 l/m 0 min 0 min 64 W/m 38,6 km/h (5 Bft) 100,00 %
03.01.2020 13:54 9,3 C 8,3 C 7,8 C 96 % 1016,6 hPa 0,0 l/m 0 min 0 min 67 W/m 22,5 km/h (4 Bft) 100,00 %
03.01.2020 13:56 9,3 C 8,3 C 7,8 C 96 % 1016,6 hPa 0,0 l/m 0 min 0 min 58 W/m 22,5 km/h (4 Bft) 97,87 %
03.01.2020 13:58 9,3 C 8,3 C 7,8 C 96 % 1016,6 hPa 0,0 l/m 0 min 0 min 47 W/m 32,2 km/h (5 Bft) 100,00 %
03.01.2020 14:00 9,3 C 7,8 C 7,8 C 96 % 1016,6 hPa 0,0 l/m 0 min 2 min 42 W/m 35,4 km/h (5 Bft) 100,00 %
03.01.2020 14:02 9,3 C 7,8 C 7,2 C 96 % 1016,7 hPa 0,0 l/m 0 min 2 min 38 W/m 41,8 km/h (6 Bft) 100,00 %
03.01.2020 14:04 9,3 C 7,8 C 7,8 C 96 % 1016,6 hPa 0,0 l/m 0 min 2 min 42 W/m 25,7 km/h (4 Bft) 97,87 %
03.01.2020 14:06 9,3 C 7,8 C 7,8 C 96 % 1016,6 hPa 0,2 l/m 0 min 2 min 39 W/m 16,1 km/h (3 Bft) 97,87 %
03.01.2020 14:08 9,3 C 7,8 C 7,2 C 96 % 1016,5 hPa 0,0 l/m 0 min 2 min 36 W/m 32,2 km/h (5 Bft) 100,00 %
03.01.2020 14:10 9,3 C 7,8 C 7,2 C 96 % 1016,4 hPa 0,0 l/m 0 min 2 min 38 W/m 22,5 km/h (4 Bft) 100,00 %
03.01.2020 14:12 9,3 C 7,8 C 7,2 C 96 % 1016,5 hPa 0,2 l/m 0 min 2 min 33 W/m 38,6 km/h (5 Bft) 97,83 %
03.01.2020 14:14 9,3 C 7,8 C 7,2 C 96 % 1016,5 hPa 0,0 l/m 0 min 2 min 36 W/m 29,0 km/h (5 Bft) 95,74 %
03.01.2020 14:16 9,3 C 7,8 C 7,2 C 96 % 1016,5 hPa 0,0 l/m 0 min 2 min 36 W/m 16,1 km/h (3 Bft) 97,87 %
03.01.2020 14:18 9,3 C 7,8 C 7,2 C 96 % 1016,6 hPa 0,0 l/m 0 min 2 min 28 W/m 19,3 km/h (3 Bft) 95,74 %
03.01.2020 14:20 9,3 C 7,8 C 7,2 C 96 % 1016,5 hPa 0,0 l/m 0 min 2 min 23 W/m 29,0 km/h (5 Bft) 95,74 %
03.01.2020 14:22 9,3 C 7,8 C 7,2 C 96 % 1016,5 hPa 0,0 l/m 0 min 2 min 25 W/m 29,0 km/h (5 Bft) 95,74 %
03.01.2020 14:24 9,3 C 7,8 C 7,2 C 96 % 1016,6 hPa 0,0 l/m 0 min 2 min 27 W/m 29,0 km/h (5 Bft) 95,65 %
03.01.2020 14:26 9,3 C 7,8 C 7,2 C 96 % 1016,5 hPa 0,0 l/m 0 min 2 min 36 W/m 32,2 km/h (5 Bft) 93,62 %
03.01.2020 14:28 9,3 C 7,8 C 7,2 C 96 % 1016,5 hPa 0,0 l/m 0 min 2 min 34 W/m 29,0 km/h (5 Bft) 91,49 %
03.01.2020 14:30 9,3 C 7,8 C 7,2 C 96 % 1016,5 hPa 0,0 l/m 0 min 2 min 30 W/m 22,5 km/h (4 Bft) 91,49 %
03.01.2020 14:32 9,3 C 7,8 C 7,2 C 96 % 1016,6 hPa 0,0 l/m 0 min 2 min 25 W/m 29,0 km/h (5 Bft) 93,62 %
03.01.2020 14:34 9,2 C 7,8 C 7,2 C 97 % 1016,5 hPa 0,0 l/m 0 min 2 min 23 W/m 35,4 km/h (5 Bft) 93,62 %
03.01.2020 14:36 9,2 C 7,8 C 7,2 C 97 % 1016,5 hPa 0,0 l/m 0 min 2 min 20 W/m 35,4 km/h (5 Bft) 89,13 %
03.01.2020 14:38 9,2 C 7,8 C 7,2 C 97 % 1016,6 hPa 0,0 l/m 0 min 2 min 21 W/m 29,0 km/h (5 Bft) 93,62 %
03.01.2020 14:40 9,2 C 7,8 C 7,2 C 97 % 1016,6 hPa 0,0 l/m 0 min 2 min 20 W/m 32,2 km/h (5 Bft) 91,49 %
03.01.2020 14:42 9,2 C 7,8 C 7,2 C 97 % 1016,6 hPa 0,0 l/m 0 min 2 min 25 W/m 29,0 km/h (5 Bft) 91,49 %
03.01.2020 14:44 9,2 C 7,8 C 7,2 C 97 % 1016,6 hPa 0,0 l/m 0 min 2 min 36 W/m 29,0 km/h (5 Bft) 95,74 %
03.01.2020 14:46 9,2 C 7,8 C 7,2 C 97 % 1016,6 hPa 0,0 l/m 0 min 2 min 35 W/m 35,4 km/h (5 Bft) 91,49 %
03.01.2020 14:48 9,2 C 7,8 C 7,2 C 97 % 1016,6 hPa 0,0 l/m 0 min 2 min 33 W/m 12,9 km/h (3 Bft) 91,30 %
03.01.2020 14:50 9,2 C 7,8 C 7,8 C 97 % 1016,7 hPa 0,0 l/m 0 min 2 min 30 W/m 25,7 km/h (4 Bft) 91,49 %
03.01.2020 14:52 9,2 C 7,8 C 7,8 C 97 % 1016,7 hPa 0,0 l/m 0 min 2 min 32 W/m 38,6 km/h (5 Bft) 93,62 %
03.01.2020 14:54 9,2 C 7,8 C 7,8 C 97 % 1016,7 hPa 0,0 l/m 0 min 2 min 26 W/m 19,3 km/h (3 Bft) 91,49 %
03.01.2020 14:56 9,2 C 7,8 C 7,8 C 97 % 1016,7 hPa 0,2 l/m 0 min 2 min 19 W/m 16,1 km/h (3 Bft) 93,62 %
03.01.2020 14:58 9,2 C 7,8 C 7,8 C 97 % 1016,8 hPa 0,0 l/m 0 min 2 min 16 W/m 6,4 km/h (2 Bft) 95,74 %
03.01.2020 15:00 9,2 C 7,8 C 7,8 C 97 % 1016,7 hPa 0,0 l/m 0 min 2 min 17 W/m 29,0 km/h (5 Bft) 93,48 %
03.01.2020 15:02 9,2 C 7,8 C 7,8 C 97 % 1016,8 hPa 0,0 l/m 0 min 2 min 18 W/m 16,1 km/h (3 Bft) 91,49 %
03.01.2020 15:04 9,2 C 7,8 C 7,8 C 97 % 1016,8 hPa 0,0 l/m 0 min 2 min 16 W/m 25,7 km/h (4 Bft) 91,49 %
03.01.2020 15:06 9,3 C 7,8 C 7,8 C 97 % 1016,8 hPa 0,0 l/m 0 min 2 min 16 W/m 16,1 km/h (3 Bft) 91,49 %
03.01.2020 15:08 9,3 C 7,8 C 7,8 C 97 % 1016,9 hPa 0,0 l/m 0 min 2 min 18 W/m 12,9 km/h (3 Bft) 100,00 %
03.01.2020 15:10 9,3 C 8,3 C 7,8 C 97 % 1016,9 hPa 0,0 l/m 0 min 2 min 23 W/m 19,3 km/h (3 Bft) 97,87 %
03.01.2020 15:12 9,3 C 8,3 C 7,8 C 97 % 1016,9 hPa 0,0 l/m 0 min 2 min 27 W/m 22,5 km/h (4 Bft) 100,00 %
03.01.2020 15:14 9,3 C 8,3 C 7,8 C 97 % 1016,9 hPa 0,0 l/m 0 min 2 min 33 W/m 22,5 km/h (4 Bft) 97,87 %
03.01.2020 15:16 9,3 C 8,3 C 7,8 C 97 % 1016,9 hPa 0,0 l/m 0 min 2 min 31 W/m 16,1 km/h (3 Bft) 97,87 %
03.01.2020 15:18 9,3 C 8,3 C 7,8 C 97 % 1016,9 hPa 0,0 l/m 0 min 2 min 28 W/m 19,3 km/h (3 Bft) 100,00 %
03.01.2020 15:20 9,3 C 8,3 C 7,8 C 97 % 1016,9 hPa 0,2 l/m 0 min 2 min 25 W/m 19,3 km/h (3 Bft) 97,87 %
03.01.2020 15:22 9,3 C 8,3 C 7,8 C 98 % 1016,9 hPa 0,0 l/m 0 min 2 min 21 W/m 16,1 km/h (3 Bft) 95,65 %
03.01.2020 15:24 9,3 C 8,3 C 7,8 C 98 % 1016,9 hPa 0,0 l/m 0 min 2 min 27 W/m 19,3 km/h (3 Bft) 100,00 %
03.01.2020 15:26 9,4 C 8,3 C 7,8 C 98 % 1017,0 hPa 0,0 l/m 0 min 2 min 22 W/m 6,4 km/h (2 Bft) 100,00 %
03.01.2020 15:28 9,4 C 8,3 C 7,8 C 98 % 1017,0 hPa 0,0 l/m 0 min 0 min 15 W/m 16,1 km/h (3 Bft) 100,00 %
03.01.2020 15:30 9,4 C 8,3 C 7,8 C 98 % 1017,0 hPa 0,0 l/m 0 min 0 min 11 W/m 12,9 km/h (3 Bft) 97,87 %
03.01.2020 15:32 9,4 C 8,3 C 7,8 C 98 % 1017,1 hPa 0,0 l/m 0 min 0 min 13 W/m 12,9 km/h (3 Bft) 100,00 %
03.01.2020 15:34 9,4 C 8,3 C 7,8 C 98 % 1017,1 hPa 0,0 l/m 0 min 0 min 15 W/m 6,4 km/h (2 Bft) 100,00 %
03.01.2020 15:36 9,4 C 8,3 C 7,8 C 98 % 1017,1 hPa 0,0 l/m 0 min 0 min 16 W/m 0,0 km/h (0 Bft) 100,00 %
03.01.2020 15:38 9,4 C 8,3 C 7,8 C 98 % 1017,2 hPa 0,0 l/m 0 min 0 min 18 W/m 25,7 km/h (4 Bft) 100,00 %
03.01.2020 15:40 9,4 C 8,3 C 7,8 C 98 % 1017,1 hPa 0,0 l/m 0 min 0 min 22 W/m 19,3 km/h (3 Bft) 100,00 %
03.01.2020 15:42 9,4 C 8,3 C 7,8 C 98 % 1017,1 hPa 0,0 l/m 0 min 0 min 30 W/m 16,1 km/h (3 Bft) 100,00 %
03.01.2020 15:44 9,4 C 8,3 C 7,8 C 98 % 1017,2 hPa 0,0 l/m 0 min 0 min 37 W/m 0,0 km/h (0 Bft) 100,00 %
03.01.2020 15:46 9,4 C 8,3 C 7,8 C 98 % 1017,2 hPa 0,0 l/m 0 min 0 min 42 W/m 3,2 km/h (1 Bft) 97,83 %
03.01.2020 15:48 9,4 C 8,3 C 7,8 C 98 % 1017,2 hPa 0,0 l/m 0 min 0 min 49 W/m 3,2 km/h (1 Bft) 100,00 %
03.01.2020 15:50 9,4 C 8,3 C 7,8 C 98 % 1017,2 hPa 0,0 l/m 0 min 0 min 38 W/m 12,9 km/h (3 Bft) 100,00 %
03.01.2020 15:52 9,5 C 8,3 C 7,8 C 98 % 1017,2 hPa 0,0 l/m 0 min 0 min 33 W/m 22,5 km/h (4 Bft) 100,00 %
03.01.2020 15:54 9,5 C 8,3 C 7,8 C 98 % 1017,3 hPa 0,0 l/m 0 min 0 min 32 W/m 19,3 km/h (3 Bft) 100,00 %
03.01.2020 15:56 9,5 C 8,3 C 7,8 C 98 % 1017,2 hPa 0,0 l/m 0 min 2 min 25 W/m 25,7 km/h (4 Bft) 100,00 %
03.01.2020 15:58 9,5 C 8,3 C 7,8 C 98 % 1017,3 hPa 0,0 l/m 0 min 2 min 18 W/m 22,5 km/h (4 Bft) 100,00 %
03.01.2020 16:00 9,6 C 8,3 C 7,8 C 98 % 1017,2 hPa 0,0 l/m 0 min 2 min 13 W/m 19,3 km/h (3 Bft) 100,00 %
03.01.2020 16:02 9,6 C 8,3 C 7,8 C 98 % 1017,2 hPa 0,0 l/m 0 min 2 min 11 W/m 22,5 km/h (4 Bft) 100,00 %
03.01.2020 16:04 9,6 C 8,3 C 7,8 C 98 % 1017,3 hPa 0,0 l/m 0 min 2 min 12 W/m 6,4 km/h (2 Bft) 100,00 %
03.01.2020 16:06 9,6 C 8,3 C 7,8 C 98 % 1017,3 hPa 0,0 l/m 0 min 2 min 11 W/m 19,3 km/h (3 Bft) 100,00 %
03.01.2020 16:08 9,6 C 8,3 C 7,8 C 98 % 1017,4 hPa 0,0 l/m 0 min 2 min 10 W/m 12,9 km/h (3 Bft) 100,00 %
03.01.2020 16:10 9,6 C 8,3 C 7,8 C 98 % 1017,5 hPa 0,0 l/m 0 min 2 min 10 W/m 9,7 km/h (2 Bft) 100,00 %
03.01.2020 16:12 9,6 C 8,3 C 7,8 C 98 % 1017,5 hPa 0,0 l/m 0 min 2 min 9 W/m 6,4 km/h (2 Bft) 100,00 %
03.01.2020 16:14 9,6 C 8,3 C 7,8 C 98 % 1017,5 hPa 0,0 l/m 0 min 2 min 9 W/m 22,5 km/h (4 Bft) 100,00 %
03.01.2020 16:16 9,6 C 8,3 C 7,8 C 98 % 1017,5 hPa 0,0 l/m 0 min 2 min 9 W/m 9,7 km/h (2 Bft) 100,00 %
03.01.2020 16:18 9,6 C 8,3 C 7,8 C 98 % 1017,5 hPa 0,0 l/m 0 min 2 min 7 W/m 16,1 km/h (3 Bft) 100,00 %
03.01.2020 16:20 9,6 C 8,3 C 7,8 C 98 % 1017,6 hPa 0,0 l/m 0 min 2 min 7 W/m 19,3 km/h (3 Bft) 100,00 %
03.01.2020 16:22 9,6 C 8,3 C 7,8 C 98 % 1017,6 hPa 0,0 l/m 0 min 2 min 5 W/m 12,9 km/h (3 Bft) 100,00 %
03.01.2020 16:24 9,6 C 8,3 C 7,8 C 98 % 1017,6 hPa 0,0 l/m 0 min 2 min 0 W/m 3,2 km/h (1 Bft) 100,00 %
03.01.2020 16:26 9,6 C 8,3 C 7,8 C 98 % 1017,6 hPa 0,0 l/m 0 min 2 min 0 W/m 3,2 km/h (1 Bft) 100,00 %
03.01.2020 16:28 9,6 C 8,3 C 7,8 C 98 % 1017,7 hPa 0,0 l/m 0 min 2 min 0 W/m 19,3 km/h (3 Bft) 100,00 %
03.01.2020 16:30 9,6 C 8,3 C 7,8 C 98 % 1017,7 hPa 0,0 l/m 0 min 2 min 0 W/m 19,3 km/h (3 Bft) 100,00 %
03.01.2020 16:32 9,6 C 8,3 C 7,8 C 98 % 1017,8 hPa 0,0 l/m 0 min 2 min 0 W/m 3,2 km/h (1 Bft) 97,83 %
03.01.2020 16:34 9,6 C 8,3 C 7,8 C 98 % 1017,8 hPa 0,0 l/m 0 min 2 min 0 W/m 16,1 km/h (3 Bft) 100,00 %
03.01.2020 16:36 9,6 C 8,3 C 7,8 C 98 % 1017,9 hPa 0,0 l/m 0 min 2 min 0 W/m 3,2 km/h (1 Bft) 100,00 %
03.01.2020 16:38 9,6 C 8,3 C 7,8 C 98 % 1017,9 hPa 0,2 l/m 0 min 2 min 0 W/m 19,3 km/h (3 Bft) 100,00 %
03.01.2020 16:40 9,6 C 8,3 C 7,8 C 98 % 1018,0 hPa 0,0 l/m 0 min 2 min 0 W/m 25,7 km/h (4 Bft) 100,00 %
03.01.2020 16:42 9,6 C 8,3 C 7,8 C 98 % 1018,0 hPa 0,0 l/m 0 min 0 min 0 W/m 12,9 km/h (3 Bft) 97,87 %
03.01.2020 16:44 9,6 C 8,3 C 7,8 C 98 % 1018,0 hPa 0,0 l/m 0 min 2 min 0 W/m 22,5 km/h (4 Bft) 100,00 %
03.01.2020 16:46 9,6 C 8,3 C 7,8 C 98 % 1018,0 hPa 0,0 l/m 0 min 2 min 0 W/m 6,4 km/h (2 Bft) 100,00 %
03.01.2020 16:48 9,6 C 8,3 C 7,8 C 98 % 1018,2 hPa 0,0 l/m 0 min 2 min 0 W/m 3,2 km/h (1 Bft) 100,00 %
03.01.2020 16:50 9,6 C 8,3 C 7,8 C 98 % 1018,2 hPa 0,0 l/m 0 min 0 min 0 W/m 0,0 km/h (0 Bft) 97,87 %
03.01.2020 16:52 9,6 C 8,3 C 7,8 C 98 % 1018,2 hPa 0,0 l/m 0 min 0 min 0 W/m 3,2 km/h (1 Bft) 100,00 %
03.01.2020 16:54 9,6 C 8,3 C 7,8 C 98 % 1018,3 hPa 0,0 l/m 0 min 2 min 0 W/m 19,3 km/h (3 Bft) 100,00 %
03.01.2020 16:56 9,6 C 8,3 C 7,8 C 98 % 1018,3 hPa 0,0 l/m 0 min 0 min 0 W/m 22,5 km/h (4 Bft) 100,00 %
03.01.2020 16:58 9,6 C 8,3 C 7,8 C 98 % 1018,4 hPa 0,2 l/m 0 min 2 min 0 W/m 3,2 km/h (1 Bft) 95,74 %
03.01.2020 17:00 9,6 C 8,3 C 7,8 C 98 % 1018,4 hPa 0,0 l/m 0 min 2 min 0 W/m 0,0 km/h (0 Bft) 95,74 %
03.01.2020 17:02 9,6 C 8,3 C 7,8 C 98 % 1018,5 hPa 0,0 l/m 0 min 2 min 0 W/m 3,2 km/h (1 Bft) 97,87 %
03.01.2020 17:04 9,6 C 8,3 C 7,8 C 99 % 1018,5 hPa 0,0 l/m 0 min 2 min 0 W/m 0,0 km/h (0 Bft) 95,74 %
03.01.2020 17:06 9,6 C 8,3 C 7,8 C 99 % 1018,6 hPa 0,0 l/m 0 min 2 min 0 W/m 0,0 km/h (0 Bft) 93,48 %
03.01.2020 17:08 9,6 C 8,3 C 7,8 C 98 % 1018,6 hPa 0,0 l/m 0 min 0 min 0 W/m 0,0 km/h (0 Bft) 95,74 %
03.01.2020 17:10 9,6 C 8,3 C 7,8 C 99 % 1018,7 hPa 0,0 l/m 0 min 2 min 0 W/m 3,2 km/h (1 Bft) 93,62 %
03.01.2020 17:12 9,6 C 8,3 C 7,8 C 98 % 1018,7 hPa 0,0 l/m 0 min 2 min 0 W/m 0,0 km/h (0 Bft) 95,74 %
03.01.2020 17:14 9,5 C 8,3 C 7,8 C 98 % 1018,7 hPa 0,0 l/m 0 min 2 min 0 W/m 3,2 km/h (1 Bft) 97,87 %
03.01.2020 17:16 9,5 C 8,3 C 7,8 C 98 % 1018,8 hPa 0,0 l/m 0 min 2 min 0 W/m 0,0 km/h (0 Bft) 93,62 %
03.01.2020 17:18 9,5 C 8,3 C 7,8 C 99 % 1018,8 hPa 0,0 l/m 0 min 2 min 0 W/m 6,4 km/h (2 Bft) 97,87 %
03.01.2020 17:20 9,5 C 8,3 C 7,8 C 99 % 1018,8 hPa 0,0 l/m 0 min 2 min 0 W/m 6,4 km/h (2 Bft) 95,65 %
03.01.2020 17:22 9,5 C 8,3 C 7,8 C 99 % 1018,8 hPa 0,0 l/m 0 min 2 min 0 W/m 3,2 km/h (1 Bft) 93,62 %
03.01.2020 17:24 9,5 C 8,3 C 7,8 C 99 % 1018,8 hPa 0,0 l/m 0 min 2 min 0 W/m 6,4 km/h (2 Bft) 95,74 %
03.01.2020 17:26 9,6 C 8,3 C 7,8 C 99 % 1018,8 hPa 0,0 l/m 0 min 2 min 0 W/m 6,4 km/h (2 Bft) 93,62 %
03.01.2020 17:28 9,6 C 8,3 C 7,8 C 99 % 1018,9 hPa 0,0 l/m 0 min 2 min 0 W/m 3,2 km/h (1 Bft) 93,62 %
03.01.2020 17:30 9,6 C 8,3 C 7,8 C 99 % 1018,9 hPa 0,0 l/m 0 min 0 min 0 W/m 16,1 km/h (3 Bft) 89,13 %
03.01.2020 17:32 9,6 C 8,3 C 7,8 C 99 % 1019,0 hPa 0,0 l/m 0 min 0 min 0 W/m 19,3 km/h (3 Bft) 93,62 %
03.01.2020 17:34 9,6 C 8,3 C 7,8 C 99 % 1019,0 hPa 0,0 l/m 0 min 0 min 0 W/m 6,4 km/h (2 Bft) 93,62 %
03.01.2020 17:36 9,6 C 8,3 C 7,8 C 99 % 1019,1 hPa 0,0 l/m 0 min 0 min 0 W/m 3,2 km/h (1 Bft) 93,62 %
03.01.2020 17:38 9,6 C 8,3 C 7,8 C 99 % 1019,1 hPa 0,0 l/m 0 min 0 min 0 W/m 3,2 km/h (1 Bft) 93,62 %
03.01.2020 17:40 9,6 C 8,3 C 7,8 C 99 % 1019,2 hPa 0,0 l/m 0 min 0 min 0 W/m 3,2 km/h (1 Bft) 93,62 %
03.01.2020 17:42 9,6 C 8,3 C 7,8 C 99 % 1019,1 hPa 0,2 l/m 0 min 0 min 0 W/m 12,9 km/h (3 Bft) 95,65 %
03.01.2020 17:44 9,6 C 8,3 C 7,8 C 99 % 1019,2 hPa 0,0 l/m 0 min 0 min 0 W/m 12,9 km/h (3 Bft) 95,74 %
03.01.2020 17:46 9,6 C 8,3 C 7,8 C 99 % 1019,3 hPa 0,0 l/m 0 min 0 min 0 W/m 0,0 km/h (0 Bft) 93,62 %
03.01.2020 17:48 9,5 C 8,3 C 7,8 C 99 % 1019,4 hPa 0,0 l/m 0 min 0 min 0 W/m 6,4 km/h (2 Bft) 95,74 %
03.01.2020 17:50 9,6 C 8,3 C 7,8 C 99 % 1019,4 hPa 0,0 l/m 0 min 0 min 0 W/m 16,1 km/h (3 Bft) 95,74 %
03.01.2020 17:52 9,6 C 8,3 C 7,8 C 99 % 1019,5 hPa 0,0 l/m 0 min 0 min 0 W/m 9,7 km/h (2 Bft) 95,74 %
03.01.2020 17:54 9,6 C 8,3 C 7,8 C 99 % 1019,5 hPa 0,0 l/m 0 min 0 min 0 W/m 12,9 km/h (3 Bft) 93,48 %
03.01.2020 17:56 9,6 C 8,3 C 7,8 C 99 % 1019,6 hPa 0,0 l/m 0 min 0 min 0 W/m 3,2 km/h (1 Bft) 93,62 %
03.01.2020 17:58 9,5 C 8,3 C 7,8 C 99 % 1019,7 hPa 0,0 l/m 0 min 0 min 0 W/m 12,9 km/h (3 Bft) 95,74 %
03.01.2020 18:00 9,5 C 8,3 C 7,8 C 99 % 1019,7 hPa 0,0 l/m 0 min 0 min 0 W/m 6,4 km/h (2 Bft) 95,74 %
03.01.2020 18:02 9,5 C 8,3 C 7,8 C 99 % 1019,7 hPa 0,0 l/m 0 min 0 min 0 W/m 9,7 km/h (2 Bft) 91,49 %
03.01.2020 18:04 9,5 C 8,3 C 7,8 C 99 % 1019,9 hPa 0,0 l/m 0 min 0 min 0 W/m 16,1 km/h (3 Bft) 95,74 %
03.01.2020 18:06 9,5 C 8,3 C 7,8 C 99 % 1020,0 hPa 0,0 l/m 0 min 2 min 0 W/m 6,4 km/h (2 Bft) 93,48 %
03.01.2020 18:08 9,5 C 8,3 C 7,8 C 99 % 1020,1 hPa 0,0 l/m 0 min 2 min 0 W/m 3,2 km/h (1 Bft) 97,87 %
03.01.2020 18:10 9,4 C 8,3 C 7,8 C 99 % 1020,1 hPa 0,0 l/m 0 min 0 min 0 W/m 16,1 km/h (3 Bft) 97,87 %
03.01.2020 18:12 9,4 C 8,3 C 7,8 C 99 % 1020,2 hPa 0,0 l/m 0 min 2 min 0 W/m 25,7 km/h (4 Bft) 97,87 %
03.01.2020 18:14 9,4 C 8,3 C 7,8 C 99 % 1020,3 hPa 0,0 l/m 0 min 0 min 0 W/m 16,1 km/h (3 Bft) 97,87 %
03.01.2020 18:16 9,4 C 8,3 C 7,8 C 99 % 1020,3 hPa 0,0 l/m 0 min 2 min 0 W/m 16,1 km/h (3 Bft) 95,65 %
03.01.2020 18:18 9,4 C 8,3 C 7,8 C 99 % 1020,4 hPa 0,2 l/m 0 min 0 min 0 W/m 3,2 km/h (1 Bft) 97,87 %
03.01.2020 18:20 9,4 C 8,3 C 7,8 C 99 % 1020,4 hPa 0,0 l/m 0 min 2 min 0 W/m 16,1 km/h (3 Bft) 97,87 %
03.01.2020 18:22 9,3 C 8,3 C 7,8 C 99 % 1020,5 hPa 0,0 l/m 0 min 0 min 0 W/m 16,1 km/h (3 Bft) 100,00 %
03.01.2020 18:24 9,3 C 8,3 C 7,8 C 99 % 1020,6 hPa 0,0 l/m 0 min 0 min 0 W/m 12,9 km/h (3 Bft) 97,87 %
03.01.2020 18:26 9,2 C 7,8 C 7,8 C 99 % 1020,7 hPa 0,0 l/m 0 min 0 min 0 W/m 32,2 km/h (5 Bft) 100,00 %
03.01.2020 18:28 9,2 C 7,8 C 7,2 C 99 % 1020,9 hPa 0,0 l/m 0 min 0 min 0 W/m 19,3 km/h (3 Bft) 97,83 %
03.01.2020 18:30 9,1 C 7,8 C 7,2 C 99 % 1021,0 hPa 0,0 l/m 0 min 0 min 0 W/m 32,2 km/h (5 Bft) 97,87 %
03.01.2020 18:32 8,9 C 7,2 C 7,2 C 99 % 1021,1 hPa 0,0 l/m 0 min 0 min 0 W/m 35,4 km/h (5 Bft) 100,00 %
03.01.2020 18:34 8,8 C 7,2 C 7,2 C 99 % 1021,2 hPa 0,0 l/m 0 min 0 min 0 W/m 25,7 km/h (4 Bft) 97,87 %
03.01.2020 18:36 8,7 C 7,2 C 6,7 C 99 % 1021,2 hPa 0,0 l/m 0 min 0 min 0 W/m 32,2 km/h (5 Bft) 100,00 %
03.01.2020 18:38 8,6 C 7,2 C 6,7 C 99 % 1021,4 hPa 0,0 l/m 0 min 0 min 0 W/m 29,0 km/h (5 Bft) 100,00 %
03.01.2020 18:40 8,6 C 7,2 C 6,7 C 99 % 1021,4 hPa 0,0 l/m 0 min 0 min 0 W/m 29,0 km/h (5 Bft) 100,00 %
03.01.2020 18:42 8,4 C 6,7 C 6,7 C 99 % 1021,5 hPa 0,0 l/m 0 min 0 min 0 W/m 41,8 km/h (6 Bft) 100,00 %
03.01.2020 18:44 8,3 C 6,7 C 6,7 C 99 % 1021,6 hPa 0,0 l/m 0 min 0 min 0 W/m 32,2 km/h (5 Bft) 100,00 %
03.01.2020 18:46 8,1 C 6,7 C 6,7 C 99 % 1021,7 hPa 0,0 l/m 0 min 0 min 0 W/m 38,6 km/h (5 Bft) 100,00 %
03.01.2020 18:48 8,1 C 6,7 C 6,1 C 98 % 1021,7 hPa 0,0 l/m 0 min 0 min 0 W/m 38,6 km/h (5 Bft) 97,87 %
03.01.2020 18:50 7,9 C 6,7 C 6,1 C 98 % 1021,8 hPa 0,0 l/m 0 min 0 min 0 W/m 41,8 km/h (6 Bft) 100,00 %
03.01.2020 18:52 7,8 C 6,7 C 6,1 C 98 % 1021,9 hPa 0,0 l/m 0 min 0 min 0 W/m 35,4 km/h (5 Bft) 100,00 %
03.01.2020 18:54 7,7 C 6,1 C 6,1 C 98 % 1022,0 hPa 0,0 l/m 0 min 0 min 0 W/m 29,0 km/h (5 Bft) 100,00 %
03.01.2020 18:56 7,7 C 6,1 C 6,1 C 98 % 1022,0 hPa 0,0 l/m 0 min 0 min 0 W/m 35,4 km/h (5 Bft) 100,00 %
03.01.2020 18:58 7,6 C 6,1 C 6,1 C 98 % 1022,1 hPa 0,0 l/m 0 min 0 min 0 W/m 32,2 km/h (5 Bft) 100,00 %
03.01.2020 19:00 7,6 C 6,1 C 6,1 C 98 % 1022,2 hPa 0,0 l/m 0 min 0 min 0 W/m 29,0 km/h (5 Bft) 97,87 %
03.01.2020 19:02 7,4 C 6,1 C 6,1 C 98 % 1022,2 hPa 0,0 l/m 0 min 0 min 0 W/m 29,0 km/h (5 Bft) 100,00 %
03.01.2020 19:04 7,4 C 6,1 C 5,6 C 98 % 1022,4 hPa 0,0 l/m 0 min 0 min 0 W/m 32,2 km/h (5 Bft) 100,00 %
03.01.2020 19:06 7,3 C 6,1 C 5,6 C 98 % 1022,4 hPa 0,0 l/m 0 min 0 min 0 W/m 25,7 km/h (4 Bft) 100,00 %
03.01.2020 19:08 7,3 C 6,1 C 5,6 C 98 % 1022,5 hPa 0,0 l/m 0 min 0 min 0 W/m 25,7 km/h (4 Bft) 100,00 %
03.01.2020 19:10 7,2 C 6,1 C 5,6 C 98 % 1022,6 hPa 0,0 l/m 0 min 0 min 0 W/m 25,7 km/h (4 Bft) 100,00 %
03.01.2020 19:12 7,2 C 6,1 C 5,6 C 98 % 1022,6 hPa 0,0 l/m 0 min 0 min 0 W/m 25,7 km/h (4 Bft) 100,00 %
03.01.2020 19:14 7,2 C 6,1 C 5,6 C 98 % 1022,6 hPa 0,0 l/m 0 min 0 min 0 W/m 35,4 km/h (5 Bft) 100,00 %
03.01.2020 19:16 7,1 C 6,1 C 5,6 C 98 % 1022,7 hPa 0,0 l/m 0 min 0 min 0 W/m 29,0 km/h (5 Bft) 100,00 %
03.01.2020 19:18 7,1 C 6,1 C 5,6 C 98 % 1022,8 hPa 0,0 l/m 0 min 0 min 0 W/m 16,1 km/h (3 Bft) 100,00 %
03.01.2020 19:20 7,1 C 5,6 C 5,6 C 98 % 1022,8 hPa 0,0 l/m 0 min 0 min 0 W/m 35,4 km/h (5 Bft) 100,00 %
03.01.2020 19:22 7,0 C 5,6 C 5,6 C 98 % 1022,9 hPa 0,0 l/m 0 min 0 min 0 W/m 25,7 km/h (4 Bft) 100,00 %
03.01.2020 19:24 6,9 C 5,6 C 5,6 C 98 % 1023,0 hPa 0,0 l/m 0 min 0 min 0 W/m 32,2 km/h (5 Bft) 100,00 %
03.01.2020 19:26 6,9 C 5,6 C 5,6 C 98 % 1023,1 hPa 0,0 l/m 0 min 0 min 0 W/m 25,7 km/h (4 Bft) 93,48 %
03.01.2020 19:28 6,9 C 5,6 C 5,6 C 98 % 1023,2 hPa 0,0 l/m 0 min 0 min 0 W/m 29,0 km/h (5 Bft) 100,00 %
03.01.2020 19:30 6,9 C 5,6 C 5,6 C 98 % 1023,3 hPa 0,0 l/m 0 min 0 min 0 W/m 19,3 km/h (3 Bft) 100,00 %
03.01.2020 19:32 6,8 C 5,6 C 5,6 C 98 % 1023,4 hPa 0,0 l/m 0 min 0 min 0 W/m 25,7 km/h (4 Bft) 97,87 %
03.01.2020 19:34 6,8 C 5,6 C 5,6 C 98 % 1023,4 hPa 0,0 l/m 0 min 2 min 0 W/m 29,0 km/h (5 Bft) 97,87 %
03.01.2020 19:36 6,8 C 5,6 C 5,6 C 98 % 1023,5 hPa 0,0 l/m 0 min 0 min 0 W/m 25,7 km/h (4 Bft) 95,74 %
03.01.2020 19:38 6,8 C 5,6 C 5,0 C 98 % 1023,6 hPa 0,0 l/m 0 min 0 min 0 W/m 32,2 km/h (5 Bft) 97,83 %
03.01.2020 19:40 6,8 C 5,6 C 5,0 C 98 % 1023,6 hPa 0,0 l/m 0 min 0 min 0 W/m 22,5 km/h (4 Bft) 95,74 %
03.01.2020 19:42 6,7 C 5,6 C 5,0 C 98 % 1023,6 hPa 0,0 l/m 0 min 0 min 0 W/m 25,7 km/h (4 Bft) 97,87 %
03.01.2020 19:44 6,7 C 5,6 C 5,0 C 98 % 1023,7 hPa 0,0 l/m 0 min 0 min 0 W/m 22,5 km/h (4 Bft) 97,87 %
03.01.2020 19:46 6,7 C 5,6 C 5,0 C 98 % 1023,7 hPa 0,0 l/m 0 min 0 min 0 W/m 12,9 km/h (3 Bft) 97,87 %
03.01.2020 19:48 6,6 C 5,6 C 5,0 C 98 % 1023,7 hPa 0,0 l/m 0 min 0 min 0 W/m 16,1 km/h (3 Bft) 97,87 %
03.01.2020 19:50 6,6 C 5,6 C 5,0 C 98 % 1023,7 hPa 0,0 l/m 0 min 0 min 0 W/m 19,3 km/h (3 Bft) 97,83 %
03.01.2020 19:52 6,6 C 5,0 C 5,0 C 98 % 1023,7 hPa 0,0 l/m 0 min 0 min 0 W/m 9,7 km/h (2 Bft) 97,87 %
03.01.2020 19:54 6,5 C 5,0 C 5,0 C 98 % 1023,8 hPa 0,0 l/m 0 min 0 min 0 W/m 19,3 km/h (3 Bft) 97,87 %
03.01.2020 19:56 6,5 C 5,0 C 5,0 C 98 % 1023,7 hPa 0,0 l/m 0 min 0 min 0 W/m 16,1 km/h (3 Bft) 95,74 %
03.01.2020 19:58 6,5 C 5,0 C 5,0 C 98 % 1023,8 hPa 0,0 l/m 0 min 0 min 0 W/m 12,9 km/h (3 Bft) 95,74 %
03.01.2020 20:00 6,5 C 5,0 C 4,4 C 98 % 1023,8 hPa 0,0 l/m 0 min 0 min 0 W/m 16,1 km/h (3 Bft) 97,87 %
03.01.2020 20:02 6,4 C 5,0 C 4,4 C 98 % 1023,8 hPa 0,0 l/m 0 min 0 min 0 W/m 16,1 km/h (3 Bft) 95,65 %
03.01.2020 20:04 6,4 C 5,0 C 4,4 C 98 % 1023,9 hPa 0,0 l/m 0 min 0 min 0 W/m 12,9 km/h (3 Bft) 95,74 %
03.01.2020 20:06 6,3 C 5,0 C 4,4 C 98 % 1023,9 hPa 0,0 l/m 0 min 0 min 0 W/m 16,1 km/h (3 Bft) 95,74 %
03.01.2020 20:08 6,3 C 5,0 C 4,4 C 98 % 1024,0 hPa 0,0 l/m 0 min 0 min 0 W/m 19,3 km/h (3 Bft) 97,87 %
03.01.2020 20:10 6,2 C 4,4 C 4,4 C 98 % 1024,0 hPa 0,0 l/m 0 min 0 min 0 W/m 12,9 km/h (3 Bft) 95,74 %
03.01.2020 20:12 6,2 C 4,4 C 4,4 C 98 % 1024,1 hPa 0,0 l/m 0 min 0 min 0 W/m 12,9 km/h (3 Bft) 95,65 %
03.01.2020 20:14 6,1 C 4,4 C 4,4 C 98 % 1024,1 hPa 0,0 l/m 0 min 0 min 0 W/m 16,1 km/h (3 Bft) 95,74 %
03.01.2020 20:16 6,1 C 4,4 C 4,4 C 97 % 1024,2 hPa 0,0 l/m 0 min 0 min 0 W/m 16,1 km/h (3 Bft) 93,62 %
03.01.2020 20:18 6,1 C 4,4 C 4,4 C 97 % 1024,3 hPa 0,0 l/m 0 min 0 min 0 W/m 16,1 km/h (3 Bft) 93,62 %
03.01.2020 20:20 6,1 C 4,4 C 4,4 C 97 % 1024,4 hPa 0,0 l/m 0 min 0 min 0 W/m 19,3 km/h (3 Bft) 97,87 %
03.01.2020 20:22 6,0 C 4,4 C 4,4 C 98 % 1024,4 hPa 0,0 l/m 0 min 0 min 0 W/m 9,7 km/h (2 Bft) 97,87 %
03.01.2020 20:24 6,0 C 4,4 C 4,4 C 98 % 1024,4 hPa 0,0 l/m 0 min 0 min 0 W/m 19,3 km/h (3 Bft) 97,87 %
03.01.2020 20:26 5,9 C 4,4 C 4,4 C 98 % 1024,6 hPa 0,0 l/m 0 min 0 min 0 W/m 19,3 km/h (3 Bft) 97,83 %
03.01.2020 20:28 5,9 C 4,4 C 4,4 C 98 % 1024,6 hPa 0,0 l/m 0 min 0 min 0 W/m 12,9 km/h (3 Bft) 95,74 %
03.01.2020 20:30 5,9 C 4,4 C 4,4 C 98 % 1024,7 hPa 0,0 l/m 0 min 0 min 0 W/m 9,7 km/h (2 Bft) 97,87 %
03.01.2020 20:32 5,9 C 4,4 C 4,4 C 98 % 1024,7 hPa 0,0 l/m 0 min 0 min 0 W/m 12,9 km/h (3 Bft) 97,87 %
03.01.2020 20:34 5,9 C 5,0 C 4,4 C 98 % 1024,7 hPa 0,0 l/m 0 min 0 min 0 W/m 16,1 km/h (3 Bft) 95,74 %
03.01.2020 20:36 5,9 C 5,0 C 4,4 C 98 % 1024,9 hPa 0,0 l/m 0 min 0 min 0 W/m 9,7 km/h (2 Bft) 95,65 %
03.01.2020 20:38 5,9 C 5,0 C 4,4 C 98 % 1024,9 hPa 0,0 l/m 0 min 0 min 0 W/m 9,7 km/h (2 Bft) 97,87 %
03.01.2020 20:40 5,9 C 5,0 C 4,4 C 98 % 1025,0 hPa 0,0 l/m 0 min 0 min 0 W/m 12,9 km/h (3 Bft) 95,74 %
03.01.2020 20:42 5,8 C 5,0 C 4,4 C 98 % 1025,0 hPa 0,0 l/m 0 min 0 min 0 W/m 12,9 km/h (3 Bft) 97,87 %
03.01.2020 20:44 5,8 C 5,0 C 4,4 C 98 % 1025,1 hPa 0,0 l/m 0 min 0 min 0 W/m 19,3 km/h (3 Bft) 97,87 %
03.01.2020 20:46 5,8 C 5,0 C 4,4 C 98 % 1025,1 hPa 0,0 l/m 0 min 0 min 0 W/m 9,7 km/h (2 Bft) 97,87 %
03.01.2020 20:48 5,8 C 5,0 C 4,4 C 98 % 1025,2 hPa 0,0 l/m 0 min 0 min 0 W/m 16,1 km/h (3 Bft) 97,83 %
03.01.2020 20:50 5,9 C 5,0 C 4,4 C 98 % 1025,2 hPa 0,0 l/m 0 min 0 min 0 W/m 9,7 km/h (2 Bft) 97,87 %
03.01.2020 20:52 5,8 C 5,0 C 4,4 C 98 % 1025,3 hPa 0,0 l/m 0 min 0 min 0 W/m 25,7 km/h (4 Bft) 93,62 %
03.01.2020 20:54 5,8 C 5,0 C 4,4 C 98 % 1025,4 hPa 0,0 l/m 0 min 0 min 0 W/m 9,7 km/h (2 Bft) 95,74 %
03.01.2020 20:56 5,8 C 5,0 C 4,4 C 98 % 1025,4 hPa 0,0 l/m 0 min 0 min 0 W/m 16,1 km/h (3 Bft) 95,74 %
03.01.2020 20:58 5,8 C 5,0 C 4,4 C 98 % 1025,5 hPa 0,0 l/m 0 min 0 min 0 W/m 22,5 km/h (4 Bft) 93,62 %
03.01.2020 21:00 5,8 C 5,0 C 4,4 C 97 % 1025,5 hPa 0,0 l/m 0 min 0 min 0 W/m 19,3 km/h (3 Bft) 95,65 %
03.01.2020 21:02 5,9 C 5,0 C 4,4 C 98 % 1025,6 hPa 0,0 l/m 0 min 0 min 0 W/m 12,9 km/h (3 Bft) 97,87 %
03.01.2020 21:04 5,9 C 5,0 C 4,4 C 98 % 1025,6 hPa 0,0 l/m 0 min 0 min 0 W/m 9,7 km/h (2 Bft) 97,87 %
03.01.2020 21:05 5,9 C 5,0 C 4,4 C 98 % 1025,7 hPa 0,0 l/m 0 min 0 min 0 W/m 16,1 km/h (3 Bft) 100,00 %
03.01.2020 21:08 5,9 C 5,0 C 4,4 C 98 % 1025,8 hPa 0,0 l/m 0 min 0 min 0 W/m 12,9 km/h (3 Bft) 98,11 %
03.01.2020 21:10 5,9 C 5,0 C 4,4 C 98 % 1025,8 hPa 0,0 l/m 0 min 0 min 0 W/m 9,7 km/h (2 Bft) 97,73 %
03.01.2020 21:12 5,9 C 5,0 C 4,4 C 98 % 1025,9 hPa 0,0 l/m 0 min 0 min 0 W/m 9,7 km/h (2 Bft) 97,87 %
03.01.2020 21:14 5,9 C 5,0 C 4,4 C 98 % 1026,0 hPa 0,0 l/m 0 min 0 min 0 W/m 9,7 km/h (2 Bft) 97,87 %
03.01.2020 21:16 5,9 C 5,0 C 4,4 C 98 % 1026,0 hPa 0,0 l/m 0 min 0 min 0 W/m 12,9 km/h (3 Bft) 97,83 %
03.01.2020 21:18 5,9 C 5,0 C 4,4 C 98 % 1026,0 hPa 0,0 l/m 0 min 0 min 0 W/m 6,4 km/h (2 Bft) 53,33 %
03.01.2020 21:20 5,9 C 5,0 C 4,4 C 98 % 1026,0 hPa 0,0 l/m 0 min 0 min 0 W/m 12,9 km/h (3 Bft) 97,87 %
03.01.2020 21:22 5,9 C 5,0 C 4,4 C 98 % 1026,1 hPa 0,0 l/m 0 min 0 min 0 W/m 9,7 km/h (2 Bft) 97,87 %
03.01.2020 21:24 5,9 C 5,0 C 4,4 C 98 % 1026,1 hPa 0,0 l/m 0 min 0 min 0 W/m 6,4 km/h (2 Bft) 95,74 %
03.01.2020 21:26 5,9 C 5,0 C 4,4 C 98 % 1026,1 hPa 0,0 l/m 0 min 0 min 0 W/m 9,7 km/h (2 Bft) 97,87 %
03.01.2020 21:28 5,9 C 5,0 C 4,4 C 98 % 1026,2 hPa 0,0 l/m 0 min 0 min 0 W/m 9,7 km/h (2 Bft) 97,83 %
03.01.2020 21:30 5,9 C 5,0 C 4,4 C 98 % 1026,2 hPa 0,0 l/m 0 min 0 min 0 W/m 12,9 km/h (3 Bft) 97,87 %
03.01.2020 21:32 5,9 C 5,0 C 4,4 C 98 % 1026,3 hPa 0,0 l/m 0 min 0 min 0 W/m 9,7 km/h (2 Bft) 97,87 %
03.01.2020 21:34 5,9 C 5,0 C 4,4 C 98 % 1026,3 hPa 0,0 l/m 0 min 0 min 0 W/m 16,1 km/h (3 Bft) 97,87 %
03.01.2020 21:36 5,9 C 5,0 C 4,4 C 98 % 1026,4 hPa 0,0 l/m 0 min 0 min 0 W/m 12,9 km/h (3 Bft) 97,87 %
03.01.2020 21:38 5,9 C 5,0 C 4,4 C 98 % 1026,4 hPa 0,0 l/m 0 min 0 min 0 W/m 12,9 km/h (3 Bft) 97,87 %
03.01.2020 21:40 5,9 C 5,0 C 4,4 C 98 % 1026,4 hPa 0,0 l/m 0 min 0 min 0 W/m 9,7 km/h (2 Bft) 97,83 %
03.01.2020 21:42 5,9 C 5,0 C 4,4 C 98 % 1026,5 hPa 0,0 l/m 0 min 0 min 0 W/m 9,7 km/h (2 Bft) 97,87 %
03.01.2020 21:44 5,9 C 4,4 C 4,4 C 98 % 1026,5 hPa 0,0 l/m 0 min 0 min 0 W/m 9,7 km/h (2 Bft) 95,74 %
03.01.2020 21:46 5,9 C 4,4 C 4,4 C 98 % 1026,5 hPa 0,0 l/m 0 min 0 min 0 W/m 9,7 km/h (2 Bft) 97,87 %
03.01.2020 21:48 5,9 C 4,4 C 4,4 C 98 % 1026,6 hPa 0,0 l/m 0 min 0 min 0 W/m 6,4 km/h (2 Bft) 97,87 %
03.01.2020 21:50 5,8 C 4,4 C 4,4 C 98 % 1026,5 hPa 0,0 l/m 0 min 0 min 0 W/m 9,7 km/h (2 Bft) 100,00 %
03.01.2020 21:52 5,8 C 4,4 C 3,9 C 98 % 1026,6 hPa 0,0 l/m 0 min 0 min 0 W/m 9,7 km/h (2 Bft) 100,00 %
03.01.2020 21:54 5,8 C 4,4 C 3,9 C 97 % 1026,7 hPa 0,0 l/m 0 min 0 min 0 W/m 9,7 km/h (2 Bft) 100,00 %
03.01.2020 21:56 5,7 C 4,4 C 3,9 C 97 % 1026,7 hPa 0,0 l/m 0 min 0 min 0 W/m 12,9 km/h (3 Bft) 100,00 %
03.01.2020 21:58 5,7 C 4,4 C 3,9 C 97 % 1026,7 hPa 0,0 l/m 0 min 0 min 0 W/m 6,4 km/h (2 Bft) 97,87 %
03.01.2020 22:00 5,7 C 4,4 C 3,9 C 97 % 1026,8 hPa 0,0 l/m 0 min 0 min 0 W/m 9,7 km/h (2 Bft) 100,00 %
03.01.2020 22:02 5,6 C 4,4 C 3,9 C 98 % 1026,8 hPa 0,0 l/m 0 min 0 min 0 W/m 3,2 km/h (1 Bft) 97,83 %
03.01.2020 22:04 5,6 C 4,4 C 3,9 C 98 % 1026,8 hPa 0,0 l/m 0 min 0 min 0 W/m 16,1 km/h (3 Bft) 100,00 %
03.01.2020 22:06 5,6 C 3,9 C 3,9 C 98 % 1026,9 hPa 0,0 l/m 0 min 0 min 0 W/m 6,4 km/h (2 Bft) 100,00 %
03.01.2020 22:08 5,6 C 4,4 C 3,9 C 98 % 1026,9 hPa 0,0 l/m 0 min 0 min 0 W/m 6,4 km/h (2 Bft) 97,87 %
03.01.2020 22:10 5,5 C 3,9 C 3,9 C 98 % 1026,9 hPa 0,0 l/m 0 min 0 min 0 W/m 9,7 km/h (2 Bft) 100,00 %
03.01.2020 22:12 5,4 C 3,9 C 3,9 C 97 % 1027,0 hPa 0,0 l/m 0 min 0 min 0 W/m 6,4 km/h (2 Bft) 100,00 %
03.01.2020 22:14 5,4 C 3,9 C 3,9 C 97 % 1027,0 hPa 0,0 l/m 0 min 0 min 0 W/m 6,4 km/h (2 Bft) 100,00 %
03.01.2020 22:16 5,4 C 3,9 C 3,3 C 97 % 1027,0 hPa 0,0 l/m 0 min 0 min 0 W/m 6,4 km/h (2 Bft) 97,87 %
03.01.2020 22:18 5,4 C 3,9 C 3,3 C 97 % 1027,1 hPa 0,0 l/m 0 min 0 min 0 W/m 9,7 km/h (2 Bft) 97,87 %
03.01.2020 22:20 5,3 C 3,9 C 3,3 C 97 % 1027,1 hPa 0,0 l/m 0 min 0 min 0 W/m 3,2 km/h (1 Bft) 97,87 %
03.01.2020 22:22 5,3 C 3,9 C 3,3 C 97 % 1027,2 hPa 0,0 l/m 0 min 0 min 0 W/m 3,2 km/h (1 Bft) 95,74 %
03.01.2020 22:24 5,3 C 3,9 C 3,3 C 97 % 1027,3 hPa 0,0 l/m 0 min 0 min 0 W/m 0,0 km/h (0 Bft) 97,87 %
03.01.2020 22:26 5,2 C 3,9 C 3,3 C 97 % 1027,3 hPa 0,0 l/m 0 min 0 min 0 W/m 3,2 km/h (1 Bft) 97,83 %
03.01.2020 22:28 5,2 C 3,3 C 3,3 C 97 % 1027,4 hPa 0,0 l/m 0 min 0 min 0 W/m 6,4 km/h (2 Bft) 97,87 %
03.01.2020 22:30 5,2 C 3,3 C 3,3 C 97 % 1027,4 hPa 0,0 l/m 0 min 0 min 0 W/m 3,2 km/h (1 Bft) 95,74 %
03.01.2020 22:32 5,1 C 3,3 C 3,3 C 97 % 1027,3 hPa 0,0 l/m 0 min 0 min 0 W/m 3,2 km/h (1 Bft) 95,74 %
03.01.2020 22:34 5,1 C 3,3 C 2,8 C 97 % 1027,4 hPa 0,0 l/m 0 min 0 min 0 W/m 3,2 km/h (1 Bft) 97,87 %
03.01.2020 22:36 5,1 C 3,3 C 2,8 C 97 % 1027,4 hPa 0,0 l/m 0 min 0 min 0 W/m 6,4 km/h (2 Bft) 97,87 %
03.01.2020 22:38 5,0 C 3,3 C 2,8 C 97 % 1027,4 hPa 0,0 l/m 0 min 0 min 0 W/m 6,4 km/h (2 Bft) 97,83 %
03.01.2020 22:40 4,9 C 3,3 C 2,8 C 97 % 1027,4 hPa 0,0 l/m 0 min 0 min 0 W/m 6,4 km/h (2 Bft) 95,74 %
03.01.2020 22:42 4,9 C 3,3 C 2,8 C 97 % 1027,4 hPa 0,0 l/m 0 min 0 min 0 W/m 9,7 km/h (2 Bft) 95,74 %
03.01.2020 22:44 4,8 C 3,3 C 2,8 C 97 % 1027,4 hPa 0,0 l/m 0 min 0 min 0 W/m 9,7 km/h (2 Bft) 97,87 %
03.01.2020 22:46 4,8 C 3,3 C 2,8 C 97 % 1027,5 hPa 0,0 l/m 0 min 0 min 0 W/m 3,2 km/h (1 Bft) 97,87 %
03.01.2020 22:48 4,8 C 3,3 C 2,8 C 97 % 1027,5 hPa 0,0 l/m 0 min 0 min 0 W/m 3,2 km/h (1 Bft) 97,83 %
03.01.2020 22:50 4,7 C 3,3 C 2,8 C 97 % 1027,5 hPa 0,0 l/m 0 min 0 min 0 W/m 6,4 km/h (2 Bft) 93,62 %
03.01.2020 22:52 4,7 C 3,3 C 2,8 C 97 % 1027,6 hPa 0,0 l/m 0 min 0 min 0 W/m 6,4 km/h (2 Bft) 93,62 %
03.01.2020 22:54 4,6 C 3,3 C 2,8 C 97 % 1027,6 hPa 0,0 l/m 0 min 0 min 0 W/m 3,2 km/h (1 Bft) 93,62 %
03.01.2020 22:56 4,6 C 2,8 C 2,8 C 97 % 1027,7 hPa 0,0 l/m 0 min 0 min 0 W/m 3,2 km/h (1 Bft) 95,74 %
03.01.2020 22:58 4,6 C 3,3 C 2,8 C 97 % 1027,7 hPa 0,0 l/m 0 min 0 min 0 W/m 9,7 km/h (2 Bft) 95,74 %
03.01.2020 23:00 4,5 C 3,3 C 2,8 C 97 % 1027,8 hPa 0,0 l/m 0 min 0 min 0 W/m 3,2 km/h (1 Bft) 95,74 %
03.01.2020 23:02 4,4 C 2,8 C 2,8 C 97 % 1027,8 hPa 0,0 l/m 0 min 0 min 0 W/m 6,4 km/h (2 Bft) 95,65 %
03.01.2020 23:04 4,4 C 2,8 C 2,8 C 97 % 1027,8 hPa 0,0 l/m 0 min 0 min 0 W/m 6,4 km/h (2 Bft) 95,74 %
03.01.2020 23:06 4,4 C 2,8 C 2,8 C 97 % 1027,8 hPa 0,0 l/m 0 min 0 min 0 W/m 3,2 km/h (1 Bft) 95,74 %
03.01.2020 23:08 4,3 C 2,8 C 2,8 C 97 % 1027,9 hPa 0,0 l/m 0 min 0 min 0 W/m 3,2 km/h (1 Bft) 95,74 %
03.01.2020 23:10 4,3 C 2,8 C 2,2 C 97 % 1027,8 hPa 0,0 l/m 0 min 0 min 0 W/m 6,4 km/h (2 Bft) 97,87 %
03.01.2020 23:12 4,3 C 2,8 C 2,2 C 97 % 1027,8 hPa 0,0 l/m 0 min 0 min 0 W/m 3,2 km/h (1 Bft) 97,83 %
03.01.2020 23:14 4,3 C 2,8 C 2,2 C 97 % 1028,0 hPa 0,0 l/m 0 min 0 min 0 W/m 3,2 km/h (1 Bft) 97,87 %
03.01.2020 23:16 4,2 C 2,8 C 2,2 C 97 % 1028,1 hPa 0,0 l/m 0 min 0 min 0 W/m 3,2 km/h (1 Bft) 97,87 %
03.01.2020 23:18 4,2 C 2,8 C 2,8 C 97 % 1028,1 hPa 0,0 l/m 0 min 0 min 0 W/m 6,4 km/h (2 Bft) 95,74 %
03.01.2020 23:20 4,2 C 2,8 C 2,8 C 97 % 1028,1 hPa 0,0 l/m 0 min 0 min 0 W/m 6,4 km/h (2 Bft) 97,87 %
03.01.2020 23:22 4,2 C 3,3 C 2,8 C 97 % 1028,1 hPa 0,0 l/m 0 min 0 min 0 W/m 6,4 km/h (2 Bft) 95,74 %
03.01.2020 23:24 4,2 C 3,3 C 2,8 C 97 % 1028,2 hPa 0,0 l/m 0 min 0 min 0 W/m 6,4 km/h (2 Bft) 97,83 %
03.01.2020 23:26 4,2 C 3,3 C 2,8 C 97 % 1028,2 hPa 0,0 l/m 0 min 0 min 0 W/m 6,4 km/h (2 Bft) 97,87 %
03.01.2020 23:28 4,1 C 3,3 C 2,8 C 97 % 1028,3 hPa 0,0 l/m 0 min 0 min 0 W/m 6,4 km/h (2 Bft) 97,87 %
03.01.2020 23:30 4,2 C 3,3 C 2,8 C 97 % 1028,3 hPa 0,0 l/m 0 min 0 min 0 W/m 3,2 km/h (1 Bft) 97,87 %
03.01.2020 23:32 4,1 C 3,3 C 2,8 C 97 % 1028,2 hPa 0,0 l/m 0 min 0 min 0 W/m 3,2 km/h (1 Bft) 100,00 %
03.01.2020 23:34 4,2 C 3,3 C 2,8 C 97 % 1028,2 hPa 0,0 l/m 0 min 0 min 0 W/m 3,2 km/h (1 Bft) 100,00 %
03.01.2020 23:36 4,2 C 3,3 C 2,8 C 97 % 1028,3 hPa 0,0 l/m 0 min 0 min 0 W/m 0,0 km/h (0 Bft) 100,00 %
03.01.2020 23:38 4,2 C 3,3 C 2,8 C 97 % 1028,2 hPa 0,0 l/m 0 min 0 min 0 W/m 6,4 km/h (2 Bft) 100,00 %
03.01.2020 23:40 4,2 C 3,3 C 2,8 C 97 % 1028,2 hPa 0,0 l/m 0 min 0 min 0 W/m 6,4 km/h (2 Bft) 100,00 %
03.01.2020 23:42 4,2 C 3,3 C 2,8 C 97 % 1028,2 hPa 0,0 l/m 0 min 0 min 0 W/m 3,2 km/h (1 Bft) 100,00 %
03.01.2020 23:44 4,2 C 3,3 C 2,8 C 97 % 1028,1 hPa 0,0 l/m 0 min 0 min 0 W/m 0,0 km/h (0 Bft) 100,00 %
03.01.2020 23:46 4,2 C 3,3 C 2,8 C 97 % 1028,1 hPa 0,0 l/m 0 min 0 min 0 W/m 0,0 km/h (0 Bft) 100,00 %
03.01.2020 23:48 4,2 C 3,3 C 2,8 C 97 % 1028,2 hPa 0,0 l/m 0 min 0 min 0 W/m 3,2 km/h (1 Bft) 100,00 %
03.01.2020 23:50 4,2 C 3,3 C 2,8 C 97 % 1028,2 hPa 0,0 l/m 0 min 0 min 0 W/m 3,2 km/h (1 Bft) 100,00 %
03.01.2020 23:52 4,2 C 3,3 C 2,8 C 97 % 1028,3 hPa 0,0 l/m 0 min 0 min 0 W/m 6,4 km/h (2 Bft) 100,00 %
03.01.2020 23:54 4,2 C 3,3 C 2,8 C 97 % 1028,4 hPa 0,0 l/m 0 min 0 min 0 W/m 12,9 km/h (3 Bft) 100,00 %
03.01.2020 23:56 4,2 C 3,3 C 2,8 C 97 % 1028,4 hPa 0,0 l/m 0 min 0 min 0 W/m 9,7 km/h (2 Bft) 97,87 %
03.01.2020 23:58 4,2 C 3,3 C 2,8 C 97 % 1028,4 hPa 0,0 l/m 0 min 0 min 0 W/m 3,2 km/h (1 Bft) 100,00 %
_ Min-Zeit 23:28 22:56 23:10 09:38 14:10 - - - - 00:02 21:18
Minimum _ 4,1 C 2,8 C 2,2 C 89 % 1016,4 hPa - - - - 0,0 km/h (0 Bft) 53,33 %
_ Max-Zeit 16:00 12:00 06:28 17:04 23:54 10:54 12:02 09:02 12:02 11:50 00:04
Maximum _ 9,6 C 8,9 C 7,8 C 99 % 1028,4 hPa 0,2 l/m 2 min 2 min 156 W/m 48,3 km/h
O-SO (6 Bft)
100,00 %
Durchschnitt _ 7,7 C 6,8 C 6,3 C 95 % 1020,1 hPa #2,0 l/m #2 min. #5:24 h 35 W/m 15,2 km/h (3 Bft) 97,49 %
© 2020 W. Hausmann